Time,TemperatureF,DewpointF,PressureIn,WindDirection,WindDirectionDegrees,WindSpeedMPH,WindSpeedGustMPH,Humidity,HourlyPrecipIn,Conditions,Clouds,dailyrainin,SolarRadiationWatts/m^2,SoftwareType,DateUTC
2013-05-08 00:00:00,47.1,46.3,29.71,SE,128,0.0,0.0,97,0.01,,,0.03,0.00,VWS V14.01,2013-05-08 04:00:00,
2013-05-08 00:01:00,47.1,46.3,29.70,SE,128,0.0,0.0,97,0.01,,,0.03,0.00,VWS V14.01,2013-05-08 04:01:00,
2013-05-08 00:02:00,47.1,46.3,29.70,SE,128,0.0,0.0,97,0.01,,,0.03,0.00,VWS V14.01,2013-05-08 04:02:00,
2013-05-08 00:03:00,47.1,46.3,29.70,SE,128,0.0,0.0,97,0.01,,,0.03,0.00,VWS V14.01,2013-05-08 04:03:00,
2013-05-08 00:04:00,47.1,46.3,29.70,SE,128,0.0,0.0,97,0.01,,,0.03,0.00,VWS V14.01,2013-05-08 04:04:00,
2013-05-08 00:05:00,47.1,46.3,29.71,SE,128,0.0,0.0,97,0.01,,,0.03,0.00,VWS V14.01,2013-05-08 04:05:00,
2013-05-08 00:06:00,47.0,46.2,29.71,SE,128,0.0,0.0,97,0.01,,,0.00,0.00,VWS V14.01,2013-05-08 04:06:00,
2013-05-08 00:07:00,46.8,46.0,29.71,SE,128,0.0,0.0,97,0.01,,,0.00,0.00,VWS V14.01,2013-05-08 04:07:00,
2013-05-08 00:08:00,46.8,46.0,29.71,SE,128,0.0,0.0,97,0.01,,,0.00,0.00,VWS V14.01,2013-05-08 04:08:00,
2013-05-08 00:09:00,46.8,46.0,29.71,SE,128,0.0,0.0,97,0.01,,,0.00,0.00,VWS V14.01,2013-05-08 04:09:00,
2013-05-08 00:10:00,47.0,46.2,29.71,SE,128,0.0,0.0,97,0.01,,,0.00,0.00,VWS V14.01,2013-05-08 04:10:00,
2013-05-08 00:11:00,46.8,46.0,29.71,SE,128,0.0,0.0,97,0.01,,,0.00,0.00,VWS V14.01,2013-05-08 04:11:00,
2013-05-08 00:12:00,46.8,46.0,29.71,SE,128,0.0,0.0,97,0.01,,,0.00,0.00,VWS V14.01,2013-05-08 04:12:00,
2013-05-08 00:13:00,46.8,46.0,29.71,SE,128,0.0,0.0,97,0.01,,,0.00,0.00,VWS V14.01,2013-05-08 04:13:00,
2013-05-08 00:14:00,46.8,46.0,29.71,SE,128,0.0,0.0,97,0.01,,,0.00,0.00,VWS V14.01,2013-05-08 04:14:00,
2013-05-08 00:15:00,46.8,46.0,29.70,SE,128,0.0,0.0,97,0.01,,,0.00,0.00,VWS V14.01,2013-05-08 04:15:00,
2013-05-08 00:16:00,46.8,46.0,29.71,SE,128,0.0,0.0,97,0.01,,,0.00,0.00,VWS V14.01,2013-05-08 04:16:00,
2013-05-08 00:17:00,46.8,46.0,29.70,SE,128,0.0,0.0,97,0.00,,,0.00,0.00,VWS V14.01,2013-05-08 04:17:00,
2013-05-08 00:18:00,46.7,45.9,29.70,SE,128,0.0,0.0,97,0.00,,,0.00,0.00,VWS V14.01,2013-05-08 04:18:00,
2013-05-08 00:19:00,46.7,45.9,29.70,SE,128,0.0,0.0,97,0.00,,,0.00,0.00,VWS V14.01,2013-05-08 04:19:00,
2013-05-08 00:20:00,46.7,45.9,29.70,SE,128,0.0,0.0,97,0.00,,,0.00,0.00,VWS V14.01,2013-05-08 04:20:00,
2013-05-08 00:21:00,46.7,45.9,29.70,SE,128,0.0,0.0,97,0.00,,,0.00,0.00,VWS V14.01,2013-05-08 04:21:00,
2013-05-08 00:22:00,46.8,46.0,29.70,SE,128,0.0,0.0,97,0.00,,,0.00,0.00,VWS V14.01,2013-05-08 04:22:00,
2013-05-08 00:23:00,46.7,45.9,29.70,SE,128,0.0,0.0,97,0.00,,,0.00,0.00,VWS V14.01,2013-05-08 04:23:00,
2013-05-08 00:24:00,46.7,45.9,29.70,SE,128,0.0,0.0,97,0.00,,,0.00,0.00,VWS V14.01,2013-05-08 04:24:00,
2013-05-08 00:25:00,46.7,45.9,29.70,SE,128,0.0,0.0,97,0.00,,,0.00,0.00,VWS V14.01,2013-05-08 04:25:00,
2013-05-08 00:26:00,46.7,45.9,29.70,SE,128,0.0,0.0,97,0.00,,,0.00,0.00,VWS V14.01,2013-05-08 04:26:00,
2013-05-08 00:27:00,46.7,45.9,29.70,SE,128,0.0,0.0,97,0.00,,,0.00,0.00,VWS V14.01,2013-05-08 04:27:00,
2013-05-08 00:28:00,46.5,45.7,29.70,SE,128,0.0,0.0,97,0.00,,,0.00,0.00,VWS V14.01,2013-05-08 04:28:00,
2013-05-08 00:29:00,46.5,45.7,29.70,SE,128,0.0,0.0,97,0.00,,,0.00,0.00,VWS V14.01,2013-05-08 04:29:00,
2013-05-08 00:30:00,46.5,45.7,29.70,SE,128,0.0,0.0,97,0.00,,,0.00,0.00,VWS V14.01,2013-05-08 04:30:00,
2013-05-08 00:31:00,46.5,45.7,29.70,SE,128,0.0,0.0,97,0.00,,,0.00,0.00,VWS V14.01,2013-05-08 04:31:00,
2013-05-08 00:32:00,46.5,45.7,29.70,SE,128,0.0,0.0,97,0.00,,,0.00,0.00,VWS V14.01,2013-05-08 04:32:00,
2013-05-08 00:33:00,46.5,45.7,29.70,SE,128,0.0,0.0,97,0.00,,,0.00,0.00,VWS V14.01,2013-05-08 04:33:00,
2013-05-08 00:34:00,46.5,45.7,29.70,SE,128,0.0,0.0,97,0.00,,,0.00,0.00,VWS V14.01,2013-05-08 04:34:00,
2013-05-08 00:35:00,46.4,45.6,29.70,SE,128,0.0,0.0,97,0.00,,,0.00,0.00,VWS V14.01,2013-05-08 04:35:00,
2013-05-08 00:36:00,46.4,45.6,29.70,SE,128,0.0,0.0,97,0.00,,,0.00,0.00,VWS V14.01,2013-05-08 04:36:00,
2013-05-08 00:37:00,46.4,45.6,29.70,SE,128,0.0,0.0,97,0.00,,,0.00,0.00,VWS V14.01,2013-05-08 04:37:00,
2013-05-08 00:38:00,46.4,45.6,29.70,SE,128,0.0,0.0,97,0.00,,,0.00,0.00,VWS V14.01,2013-05-08 04:38:00,
2013-05-08 00:39:00,46.5,45.7,29.70,SE,128,0.0,0.0,97,0.00,,,0.00,0.00,VWS V14.01,2013-05-08 04:39:00,
2013-05-08 00:40:00,46.4,45.6,29.70,SE,128,0.0,0.0,97,0.00,,,0.00,0.00,VWS V14.01,2013-05-08 04:40:00,
2013-05-08 00:41:00,46.4,45.6,29.70,SE,128,0.0,0.0,97,0.00,,,0.00,0.00,VWS V14.01,2013-05-08 04:41:00,
2013-05-08 00:42:00,46.4,45.6,29.70,SE,128,0.0,0.0,97,0.00,,,0.00,0.00,VWS V14.01,2013-05-08 04:42:00,
2013-05-08 00:43:00,46.2,45.4,29.70,SE,128,0.0,0.0,97,0.00,,,0.00,0.00,VWS V14.01,2013-05-08 04:43:00,
2013-05-08 00:44:00,46.4,45.6,29.70,SE,128,0.0,0.0,97,0.00,,,0.00,0.00,VWS V14.01,2013-05-08 04:44:00,
2013-05-08 00:45:00,46.2,45.4,29.70,SE,128,0.0,0.0,97,0.00,,,0.00,0.00,VWS V14.01,2013-05-08 04:45:00,
2013-05-08 00:46:00,46.2,45.4,29.70,SE,128,0.0,0.0,97,0.00,,,0.00,0.00,VWS V14.01,2013-05-08 04:46:00,
2013-05-08 00:47:00,46.2,45.4,29.70,SE,128,0.0,0.0,97,0.00,,,0.00,0.00,VWS V14.01,2013-05-08 04:47:00,
2013-05-08 00:48:00,46.2,45.4,29.70,SE,128,0.0,0.0,97,0.00,,,0.00,0.00,VWS V14.01,2013-05-08 04:48:00,
2013-05-08 00:49:00,46.2,45.4,29.70,SE,128,0.0,0.0,97,0.00,,,0.00,0.00,VWS V14.01,2013-05-08 04:49:00,
2013-05-08 00:50:00,46.2,45.4,29.70,SE,128,0.0,0.0,97,0.00,,,0.00,0.00,VWS V14.01,2013-05-08 04:50:00,
2013-05-08 00:51:00,46.1,45.3,29.70,SE,128,0.0,0.0,97,0.00,,,0.00,0.00,VWS V14.01,2013-05-08 04:51:00,
2013-05-08 00:52:00,46.1,45.3,29.70,SE,128,0.0,0.0,97,0.00,,,0.00,0.00,VWS V14.01,2013-05-08 04:52:00,
2013-05-08 00:53:00,46.1,45.3,29.70,SE,128,0.0,0.0,97,0.00,,,0.00,0.00,VWS V14.01,2013-05-08 04:53:00,
2013-05-08 00:54:00,46.1,45.3,29.70,SE,128,0.0,0.0,97,0.00,,,0.00,0.00,VWS V14.01,2013-05-08 04:54:00,
2013-05-08 00:55:00,46.2,45.4,29.70,SE,128,0.0,0.0,97,0.00,,,0.00,0.00,VWS V14.01,2013-05-08 04:55:00,
2013-05-08 00:56:00,46.1,45.3,29.70,SE,128,0.0,0.0,97,0.00,,,0.00,0.00,VWS V14.01,2013-05-08 04:56:00,
2013-05-08 00:57:00,46.1,45.3,29.70,SE,128,0.0,0.0,97,0.00,,,0.00,0.00,VWS V14.01,2013-05-08 04:57:00,
2013-05-08 00:58:00,46.2,45.4,29.70,SE,128,0.0,0.0,97,0.00,,,0.00,0.00,VWS V14.01,2013-05-08 04:58:00,
2013-05-08 00:59:00,46.2,45.4,29.70,SE,128,0.0,0.0,97,0.00,,,0.00,0.00,VWS V14.01,2013-05-08 04:59:00,
2013-05-08 01:00:00,46.1,45.3,29.70,SE,128,0.0,0.0,97,0.00,,,0.00,0.00,VWS V14.01,2013-05-08 05:00:00,
2013-05-08 01:01:00,46.2,45.4,29.71,SE,128,0.0,0.0,97,0.00,,,0.00,0.00,VWS V14.01,2013-05-08 05:01:00,
2013-05-08 01:02:00,46.2,45.4,29.71,SE,128,0.0,0.0,97,0.00,,,0.00,0.00,VWS V14.01,2013-05-08 05:02:00,
2013-05-08 01:03:00,46.2,45.4,29.71,SE,128,0.0,0.0,97,0.00,,,0.00,0.00,VWS V14.01,2013-05-08 05:03:00,
2013-05-08 01:04:00,46.2,45.4,29.71,SE,128,0.0,0.0,97,0.00,,,0.00,0.00,VWS V14.01,2013-05-08 05:04:00,
2013-05-08 01:05:00,46.2,45.4,29.71,SE,128,0.0,0.0,97,0.00,,,0.00,0.00,VWS V14.01,2013-05-08 05:05:00,
2013-05-08 01:06:00,46.2,45.4,29.71,SE,128,0.0,0.0,97,0.00,,,0.00,0.00,VWS V14.01,2013-05-08 05:06:00,
2013-05-08 01:07:00,46.2,45.4,29.71,SE,128,0.0,0.0,97,0.00,,,0.00,0.00,VWS V14.01,2013-05-08 05:07:00,
2013-05-08 01:08:00,46.2,45.4,29.71,SE,128,0.0,0.0,97,0.00,,,0.00,0.00,VWS V14.01,2013-05-08 05:08:00,
2013-05-08 01:09:00,46.2,45.4,29.71,SE,128,0.0,0.0,97,0.00,,,0.00,0.00,VWS V14.01,2013-05-08 05:09:00,
2013-05-08 01:10:00,46.2,45.4,29.71,SE,128,0.0,0.0,97,0.00,,,0.00,0.00,VWS V14.01,2013-05-08 05:10:00,
2013-05-08 01:11:00,46.2,45.4,29.71,SE,128,0.0,0.0,97,0.00,,,0.00,0.00,VWS V14.01,2013-05-08 05:11:00,
2013-05-08 01:12:00,46.2,45.4,29.71,SE,128,0.0,0.0,97,0.00,,,0.00,0.00,VWS V14.01,2013-05-08 05:12:00,
2013-05-08 01:13:00,46.2,45.4,29.71,SE,128,0.0,0.0,97,0.00,,,0.00,0.00,VWS V14.01,2013-05-08 05:13:00,
2013-05-08 01:14:00,46.2,45.7,29.71,SE,128,0.0,0.0,98,0.00,,,0.00,0.00,VWS V14.01,2013-05-08 05:14:00,
2013-05-08 01:15:00,46.2,45.7,29.70,SE,128,0.0,0.0,98,0.00,,,0.00,0.00,VWS V14.01,2013-05-08 05:15:00,
2013-05-08 01:16:00,46.2,45.7,29.70,SE,128,0.0,0.0,98,0.00,,,0.00,0.00,VWS V14.01,2013-05-08 05:16:00,
2013-05-08 01:17:00,46.2,45.4,29.71,SE,128,0.0,0.0,97,0.00,,,0.00,0.00,VWS V14.01,2013-05-08 05:17:00,
2013-05-08 01:18:00,46.2,45.7,29.70,SE,128,0.0,0.0,98,0.00,,,0.00,0.00,VWS V14.01,2013-05-08 05:18:00,
2013-05-08 01:19:00,46.2,45.7,29.70,SE,128,0.0,0.0,98,0.00,,,0.00,0.00,VWS V14.01,2013-05-08 05:19:00,
2013-05-08 01:20:00,46.4,45.9,29.70,SE,128,0.0,0.0,98,0.00,,,0.00,0.00,VWS V14.01,2013-05-08 05:20:00,
2013-05-08 01:21:00,46.4,45.9,29.70,SE,128,0.0,0.0,98,0.00,,,0.00,0.00,VWS V14.01,2013-05-08 05:21:00,
2013-05-08 01:22:00,46.4,45.9,29.70,SE,128,0.0,0.0,98,0.00,,,0.00,0.00,VWS V14.01,2013-05-08 05:22:00,
2013-05-08 01:23:00,46.2,45.7,29.70,SE,128,0.0,0.0,98,0.00,,,0.00,0.00,VWS V14.01,2013-05-08 05:23:00,
2013-05-08 01:24:00,46.4,45.9,29.70,SE,128,0.0,0.0,98,0.00,,,0.00,0.00,VWS V14.01,2013-05-08 05:24:00,
2013-05-08 01:25:00,46.4,45.9,29.70,SE,128,0.0,0.0,98,0.00,,,0.00,0.00,VWS V14.01,2013-05-08 05:25:00,
2013-05-08 01:26:00,46.4,45.9,29.70,SE,128,0.0,0.0,98,0.00,,,0.00,0.00,VWS V14.01,2013-05-08 05:26:00,
2013-05-08 01:27:00,46.4,45.9,29.70,SE,128,0.0,0.0,98,0.00,,,0.00,0.00,VWS V14.01,2013-05-08 05:27:00,
2013-05-08 01:28:00,46.4,45.9,29.70,SE,128,0.0,0.0,98,0.00,,,0.00,0.00,VWS V14.01,2013-05-08 05:28:00,
2013-05-08 01:29:00,46.4,45.9,29.70,SE,128,0.0,0.0,98,0.00,,,0.00,0.00,VWS V14.01,2013-05-08 05:29:00,
2013-05-08 01:30:00,46.4,45.9,29.71,SE,128,0.0,0.0,98,0.00,,,0.00,0.00,VWS V14.01,2013-05-08 05:30:00,
2013-05-08 01:31:00,46.4,45.9,29.71,SE,128,0.0,0.0,98,0.00,,,0.00,0.00,VWS V14.01,2013-05-08 05:31:00,
2013-05-08 01:32:00,46.4,45.9,29.71,SE,128,0.0,0.0,98,0.00,,,0.00,0.00,VWS V14.01,2013-05-08 05:32:00,
2013-05-08 01:33:00,46.4,45.9,29.71,SE,128,0.0,0.0,98,0.00,,,0.00,0.00,VWS V14.01,2013-05-08 05:33:00,
2013-05-08 01:34:00,46.4,45.9,29.70,SE,128,0.0,0.0,98,0.00,,,0.00,0.00,VWS V14.01,2013-05-08 05:34:00,
2013-05-08 01:35:00,46.4,45.9,29.71,SE,128,0.0,0.0,98,0.00,,,0.00,0.00,VWS V14.01,2013-05-08 05:35:00,
2013-05-08 01:36:00,46.4,45.9,29.71,SE,128,0.0,0.0,98,0.00,,,0.00,0.00,VWS V14.01,2013-05-08 05:36:00,
2013-05-08 01:37:00,46.4,45.9,29.71,SE,128,0.0,0.0,98,0.00,,,0.00,0.00,VWS V14.01,2013-05-08 05:37:00,
2013-05-08 01:38:00,46.4,45.9,29.71,SE,128,0.0,0.0,98,0.00,,,0.00,0.00,VWS V14.01,2013-05-08 05:38:00,
2013-05-08 01:39:00,46.4,45.9,29.71,ESE,123,0.0,0.0,98,0.00,,,0.00,0.00,VWS V14.01,2013-05-08 05:39:00,
2013-05-08 01:40:00,46.4,45.9,29.71,SE,128,0.0,0.0,98,0.00,,,0.00,0.00,VWS V14.01,2013-05-08 05:40:00,
2013-05-08 01:41:00,46.4,45.9,29.71,SE,128,0.0,0.0,98,0.00,,,0.00,0.00,VWS V14.01,2013-05-08 05:41:00,
2013-05-08 01:42:00,46.4,45.9,29.71,SE,128,0.0,0.0,98,0.00,,,0.00,0.00,VWS V14.01,2013-05-08 05:42:00,
2013-05-08 01:43:00,46.4,45.9,29.71,SE,128,0.0,0.0,98,0.00,,,0.00,0.00,VWS V14.01,2013-05-08 05:43:00,
2013-05-08 01:44:00,46.4,45.9,29.71,SE,128,0.0,0.0,98,0.00,,,0.00,0.00,VWS V14.01,2013-05-08 05:44:00,
2013-05-08 01:45:00,46.4,45.9,29.71,SE,128,0.0,0.0,98,0.00,,,0.00,0.00,VWS V14.01,2013-05-08 05:45:00,
2013-05-08 01:46:00,46.4,45.9,29.71,SE,128,0.0,0.0,98,0.00,,,0.00,0.00,VWS V14.01,2013-05-08 05:46:00,
2013-05-08 01:47:00,46.4,45.9,29.71,ESE,123,0.0,0.0,98,0.00,,,0.00,0.00,VWS V14.01,2013-05-08 05:47:00,
2013-05-08 01:48:00,46.4,45.9,29.71,SE,128,0.0,0.0,98,0.00,,,0.00,0.00,VWS V14.01,2013-05-08 05:48:00,
2013-05-08 01:49:00,46.4,45.9,29.71,SE,128,0.0,0.0,98,0.00,,,0.00,0.00,VWS V14.01,2013-05-08 05:49:00,
2013-05-08 01:50:00,46.4,45.9,29.71,SE,128,0.0,0.0,98,0.00,,,0.00,0.00,VWS V14.01,2013-05-08 05:50:00,
2013-05-08 01:51:00,46.4,45.9,29.71,SE,128,0.0,0.0,98,0.00,,,0.00,0.00,VWS V14.01,2013-05-08 05:51:00,
2013-05-08 01:52:00,46.4,45.9,29.71,SE,128,0.0,0.0,98,0.00,,,0.00,0.00,VWS V14.01,2013-05-08 05:52:00,
2013-05-08 01:53:00,46.4,45.9,29.71,SE,128,0.0,0.0,98,0.00,,,0.00,0.00,VWS V14.01,2013-05-08 05:53:00,
2013-05-08 01:54:00,46.4,45.9,29.71,SE,128,0.0,0.0,98,0.00,,,0.00,0.00,VWS V14.01,2013-05-08 05:54:00,
2013-05-08 01:55:00,46.4,45.9,29.71,SE,128,0.0,0.0,98,0.00,,,0.00,0.00,VWS V14.01,2013-05-08 05:55:00,
2013-05-08 01:56:00,46.4,45.9,29.71,SE,128,0.0,0.0,98,0.00,,,0.00,0.00,VWS V14.01,2013-05-08 05:56:00,
2013-05-08 01:57:00,46.4,45.9,29.71,SE,128,0.0,0.0,98,0.00,,,0.00,0.00,VWS V14.01,2013-05-08 05:57:00,
2013-05-08 01:58:00,46.4,45.9,29.71,SE,128,0.0,0.0,98,0.00,,,0.00,0.00,VWS V14.01,2013-05-08 05:58:00,
2013-05-08 01:59:00,46.4,45.9,29.71,SE,128,0.0,0.0,98,0.00,,,0.00,0.00,VWS V14.01,2013-05-08 05:59:00,
2013-05-08 02:00:00,46.4,45.9,29.70,SE,128,0.0,0.0,98,0.00,,,0.00,0.00,VWS V14.01,2013-05-08 06:00:00,
2013-05-08 02:01:00,46.4,45.9,29.70,SE,128,0.0,0.0,98,0.00,,,0.00,0.00,VWS V14.01,2013-05-08 06:01:00,
2013-05-08 02:02:00,46.4,45.9,29.71,SE,128,0.0,0.0,98,0.00,,,0.00,0.00,VWS V14.01,2013-05-08 06:02:00,
2013-05-08 02:03:00,46.4,45.9,29.70,SE,128,0.0,0.0,98,0.00,,,0.00,0.00,VWS V14.01,2013-05-08 06:03:00,
2013-05-08 02:04:00,46.4,45.9,29.70,SE,128,0.0,0.0,98,0.00,,,0.00,0.00,VWS V14.01,2013-05-08 06:04:00,
2013-05-08 02:05:00,46.4,45.9,29.70,SE,128,0.0,0.0,98,0.00,,,0.00,0.00,VWS V14.01,2013-05-08 06:05:00,
2013-05-08 02:06:00,46.4,45.9,29.70,SE,128,0.0,0.0,98,0.00,,,0.00,0.00,VWS V14.01,2013-05-08 06:06:00,
2013-05-08 02:07:00,46.4,45.9,29.70,SE,128,0.0,0.0,98,0.00,,,0.00,0.00,VWS V14.01,2013-05-08 06:07:00,
2013-05-08 02:08:00,46.4,45.9,29.70,SE,128,0.0,0.0,98,0.00,,,0.00,0.00,VWS V14.01,2013-05-08 06:08:00,
2013-05-08 02:09:00,46.4,45.9,29.70,SE,128,0.0,0.0,98,0.00,,,0.00,0.00,VWS V14.01,2013-05-08 06:09:00,
2013-05-08 02:10:00,46.4,45.9,29.70,SE,128,0.0,0.0,98,0.00,,,0.00,0.00,VWS V14.01,2013-05-08 06:10:00,
2013-05-08 02:11:00,46.4,45.9,29.70,SE,128,0.0,0.0,98,0.00,,,0.00,0.00,VWS V14.01,2013-05-08 06:11:00,
2013-05-08 02:12:00,46.4,45.9,29.70,SE,128,0.0,0.0,98,0.00,,,0.00,0.00,VWS V14.01,2013-05-08 06:12:00,
2013-05-08 02:13:00,46.4,45.9,29.70,SE,128,0.0,0.0,98,0.00,,,0.00,0.00,VWS V14.01,2013-05-08 06:13:00,
2013-05-08 02:14:00,46.5,46.0,29.70,SE,128,0.0,0.0,98,0.00,,,0.00,0.00,VWS V14.01,2013-05-08 06:14:00,
2013-05-08 02:15:00,46.5,46.0,29.70,SE,128,0.0,0.0,98,0.00,,,0.00,0.00,VWS V14.01,2013-05-08 06:15:00,
2013-05-08 02:16:00,46.5,46.0,29.70,SE,128,0.0,0.0,98,0.00,,,0.00,0.00,VWS V14.01,2013-05-08 06:16:00,
2013-05-08 02:17:00,46.5,46.0,29.70,SE,128,0.0,0.0,98,0.00,,,0.00,0.00,VWS V14.01,2013-05-08 06:17:00,
2013-05-08 02:18:00,46.5,46.0,29.70,SE,128,0.0,0.0,98,0.00,,,0.00,0.00,VWS V14.01,2013-05-08 06:18:00,
2013-05-08 02:19:00,46.5,46.0,29.70,SE,128,0.0,0.0,98,0.00,,,0.00,0.00,VWS V14.01,2013-05-08 06:19:00,
2013-05-08 02:20:00,46.5,46.0,29.70,SE,128,0.0,0.0,98,0.00,,,0.00,0.00,VWS V14.01,2013-05-08 06:20:00,
2013-05-08 02:21:00,46.5,46.0,29.70,SE,128,0.0,0.0,98,0.00,,,0.00,0.00,VWS V14.01,2013-05-08 06:21:00,
2013-05-08 02:22:00,46.5,46.0,29.70,SE,130,0.0,0.0,98,0.00,,,0.00,0.00,VWS V14.01,2013-05-08 06:22:00,
2013-05-08 02:23:00,46.7,46.2,29.70,SW,229,0.0,0.0,98,0.00,,,0.00,0.00,VWS V14.01,2013-05-08 06:23:00,
2013-05-08 02:24:00,46.5,46.0,29.70,SE,128,0.0,0.0,98,0.00,,,0.00,0.00,VWS V14.01,2013-05-08 06:24:00,
2013-05-08 02:25:00,46.7,46.2,29.70,SW,232,0.0,0.0,98,0.00,,,0.00,0.00,VWS V14.01,2013-05-08 06:25:00,
2013-05-08 02:26:00,46.7,46.2,29.70,SW,232,0.0,0.0,98,0.00,,,0.00,0.00,VWS V14.01,2013-05-08 06:26:00,
2013-05-08 02:27:00,46.5,46.0,29.70,SW,232,0.0,0.0,98,0.00,,,0.00,0.00,VWS V14.01,2013-05-08 06:27:00,
2013-05-08 02:28:00,46.5,46.0,29.70,SW,232,0.0,0.0,98,0.00,,,0.00,0.00,VWS V14.01,2013-05-08 06:28:00,
2013-05-08 02:29:00,46.7,46.2,29.70,SW,232,0.0,0.0,98,0.00,,,0.00,0.00,VWS V14.01,2013-05-08 06:29:00,
2013-05-08 02:30:00,46.5,46.0,29.70,SW,232,0.0,0.0,98,0.00,,,0.00,0.00,VWS V14.01,2013-05-08 06:30:00,
2013-05-08 02:31:00,46.5,46.0,29.70,SW,232,0.0,0.0,98,0.00,,,0.00,0.00,VWS V14.01,2013-05-08 06:31:00,
2013-05-08 02:32:00,46.5,46.0,29.70,West,264,0.0,0.0,98,0.00,,,0.00,0.00,VWS V14.01,2013-05-08 06:32:00,
2013-05-08 02:33:00,46.5,46.0,29.70,West,264,0.0,0.0,98,0.00,,,0.00,0.00,VWS V14.01,2013-05-08 06:33:00,
2013-05-08 02:34:00,46.4,45.9,29.70,West,264,0.0,0.0,98,0.00,,,0.00,0.00,VWS V14.01,2013-05-08 06:34:00,
2013-05-08 02:35:00,46.5,46.0,29.70,SW,232,0.0,0.0,98,0.00,,,0.00,0.00,VWS V14.01,2013-05-08 06:35:00,
2013-05-08 02:36:00,46.4,45.9,29.70,West,264,0.0,0.0,98,0.00,,,0.00,0.00,VWS V14.01,2013-05-08 06:36:00,
2013-05-08 02:37:00,46.4,45.9,29.70,West,264,0.0,0.0,98,0.00,,,0.00,0.00,VWS V14.01,2013-05-08 06:37:00,
2013-05-08 02:38:00,46.4,45.9,29.70,West,264,0.0,0.0,98,0.00,,,0.00,0.00,VWS V14.01,2013-05-08 06:38:00,
2013-05-08 02:39:00,46.4,45.9,29.70,West,264,0.0,0.0,98,0.00,,,0.00,0.00,VWS V14.01,2013-05-08 06:39:00,
2013-05-08 02:40:00,46.4,45.9,29.70,West,264,0.0,0.0,98,0.00,,,0.00,0.00,VWS V14.01,2013-05-08 06:40:00,
2013-05-08 02:41:00,46.4,45.9,29.70,West,264,0.0,0.0,98,0.00,,,0.00,0.00,VWS V14.01,2013-05-08 06:41:00,
2013-05-08 02:42:00,46.4,45.9,29.70,West,264,0.0,0.0,98,0.00,,,0.00,0.00,VWS V14.01,2013-05-08 06:42:00,
2013-05-08 02:43:00,46.4,45.9,29.70,West,264,0.0,0.0,98,0.00,,,0.00,0.00,VWS V14.01,2013-05-08 06:43:00,
2013-05-08 02:44:00,46.4,45.9,29.70,West,264,0.0,0.0,98,0.00,,,0.00,0.00,VWS V14.01,2013-05-08 06:44:00,
2013-05-08 02:45:00,46.4,45.9,29.70,West,264,0.0,0.0,98,0.00,,,0.00,0.00,VWS V14.01,2013-05-08 06:45:00,
2013-05-08 02:46:00,46.4,45.9,29.70,West,264,0.0,0.0,98,0.00,,,0.00,0.00,VWS V14.01,2013-05-08 06:46:00,
2013-05-08 02:47:00,46.4,45.9,29.70,West,264,0.0,0.0,98,0.00,,,0.00,0.00,VWS V14.01,2013-05-08 06:47:00,
2013-05-08 02:48:00,46.4,45.9,29.70,West,264,0.0,0.0,98,0.00,,,0.00,0.00,VWS V14.01,2013-05-08 06:48:00,
2013-05-08 02:49:00,46.4,45.9,29.70,West,264,0.0,0.0,98,0.00,,,0.00,0.00,VWS V14.01,2013-05-08 06:49:00,
2013-05-08 02:50:00,46.4,45.9,29.70,West,264,0.0,0.0,98,0.00,,,0.00,0.00,VWS V14.01,2013-05-08 06:50:00,
2013-05-08 02:51:00,46.4,45.9,29.70,West,264,0.0,0.0,98,0.00,,,0.00,0.00,VWS V14.01,2013-05-08 06:51:00,
2013-05-08 02:52:00,46.4,45.9,29.70,West,264,0.0,0.0,98,0.00,,,0.00,0.00,VWS V14.01,2013-05-08 06:52:00,
2013-05-08 02:53:00,46.4,45.9,29.70,West,264,0.0,0.0,98,0.00,,,0.00,0.00,VWS V14.01,2013-05-08 06:53:00,
2013-05-08 02:54:00,46.4,45.9,29.70,West,264,0.0,0.0,98,0.00,,,0.00,0.00,VWS V14.01,2013-05-08 06:54:00,
2013-05-08 02:55:00,46.4,45.9,29.70,West,264,0.0,0.0,98,0.00,,,0.00,0.00,VWS V14.01,2013-05-08 06:55:00,
2013-05-08 02:56:00,46.4,45.9,29.70,West,264,0.0,0.0,98,0.00,,,0.00,0.00,VWS V14.01,2013-05-08 06:56:00,
2013-05-08 02:57:00,46.4,45.9,29.70,West,264,0.0,0.0,98,0.00,,,0.00,0.00,VWS V14.01,2013-05-08 06:57:00,
2013-05-08 02:58:00,46.4,45.9,29.70,West,264,0.0,0.0,98,0.00,,,0.00,0.00,VWS V14.01,2013-05-08 06:58:00,
2013-05-08 02:59:00,46.4,45.9,29.70,West,264,0.0,0.0,98,0.00,,,0.00,0.00,VWS V14.01,2013-05-08 06:59:00,
2013-05-08 03:00:00,46.4,45.9,29.69,West,264,0.0,0.0,98,0.00,,,0.00,0.00,VWS V14.01,2013-05-08 07:00:00,
2013-05-08 03:01:00,46.4,45.9,29.70,West,264,0.0,0.0,98,0.00,,,0.00,0.00,VWS V14.01,2013-05-08 07:01:00,
2013-05-08 03:02:00,46.4,45.9,29.69,West,264,0.0,0.0,98,0.00,,,0.00,0.00,VWS V14.01,2013-05-08 07:02:00,
2013-05-08 03:03:00,46.4,45.9,29.69,West,264,0.0,0.0,98,0.00,,,0.00,0.00,VWS V14.01,2013-05-08 07:03:00,
2013-05-08 03:04:00,46.4,45.9,29.69,West,264,0.0,0.0,98,0.00,,,0.00,0.00,VWS V14.01,2013-05-08 07:04:00,
2013-05-08 03:05:00,46.4,45.9,29.69,West,264,0.0,0.0,98,0.00,,,0.00,0.00,VWS V14.01,2013-05-08 07:05:00,
2013-05-08 03:06:00,46.4,45.9,29.69,West,264,0.0,0.0,98,0.00,,,0.00,0.00,VWS V14.01,2013-05-08 07:06:00,
2013-05-08 03:07:00,46.4,45.9,29.69,West,264,0.0,0.0,98,0.00,,,0.00,0.00,VWS V14.01,2013-05-08 07:07:00,
2013-05-08 03:08:00,46.4,45.9,29.69,West,264,0.0,0.0,98,0.00,,,0.00,0.00,VWS V14.01,2013-05-08 07:08:00,
2013-05-08 03:09:00,46.4,45.9,29.69,West,263,0.0,0.0,98,0.00,,,0.00,0.00,VWS V14.01,2013-05-08 07:09:00,
2013-05-08 03:10:00,46.4,45.9,29.69,West,264,0.0,0.0,98,0.00,,,0.00,0.00,VWS V14.01,2013-05-08 07:10:00,
2013-05-08 03:11:00,46.4,45.9,29.69,West,264,0.0,0.0,98,0.00,,,0.00,0.00,VWS V14.01,2013-05-08 07:11:00,
2013-05-08 03:12:00,46.4,45.9,29.69,West,264,0.0,0.0,98,0.00,,,0.00,0.00,VWS V14.01,2013-05-08 07:12:00,
2013-05-08 03:13:00,46.4,45.9,29.69,West,264,0.0,0.0,98,0.00,,,0.00,0.00,VWS V14.01,2013-05-08 07:13:00,
2013-05-08 03:14:00,46.5,46.2,29.69,West,264,0.0,0.0,99,0.00,,,0.00,0.00,VWS V14.01,2013-05-08 07:14:00,
2013-05-08 03:15:00,46.5,46.2,29.68,West,264,0.0,0.0,99,0.00,,,0.00,0.00,VWS V14.01,2013-05-08 07:15:00,
2013-05-08 03:16:00,46.5,46.2,29.68,West,264,0.0,0.0,99,0.00,,,0.00,0.00,VWS V14.01,2013-05-08 07:16:00,
2013-05-08 03:17:00,46.7,46.4,29.68,West,264,0.0,0.0,99,0.00,,,0.00,0.00,VWS V14.01,2013-05-08 07:17:00,
2013-05-08 03:18:00,46.5,46.2,29.69,West,264,0.0,0.0,99,0.00,,,0.00,0.00,VWS V14.01,2013-05-08 07:18:00,
2013-05-08 03:19:00,46.7,46.4,29.68,West,264,0.0,0.0,99,0.00,,,0.00,0.00,VWS V14.01,2013-05-08 07:19:00,
2013-05-08 03:20:00,46.8,46.5,29.68,West,264,0.0,0.0,99,0.00,,,0.00,0.00,VWS V14.01,2013-05-08 07:20:00,
2013-05-08 03:21:00,46.8,46.5,29.68,West,264,0.0,0.0,99,0.00,,,0.00,0.00,VWS V14.01,2013-05-08 07:21:00,
2013-05-08 03:22:00,46.8,46.5,29.68,West,265,0.0,0.0,99,0.00,,,0.00,0.00,VWS V14.01,2013-05-08 07:22:00,
2013-05-08 03:23:00,46.8,46.5,29.68,West,265,0.0,0.0,99,0.00,,,0.00,0.00,VWS V14.01,2013-05-08 07:23:00,
2013-05-08 03:24:00,46.7,46.4,29.68,West,264,0.0,0.0,99,0.00,,,0.00,0.00,VWS V14.01,2013-05-08 07:24:00,
2013-05-08 03:25:00,47.0,46.7,29.68,West,265,0.0,0.0,99,0.00,,,0.00,0.00,VWS V14.01,2013-05-08 07:25:00,
2013-05-08 03:26:00,47.0,46.7,29.68,West,265,0.0,0.0,99,0.00,,,0.00,0.00,VWS V14.01,2013-05-08 07:26:00,
2013-05-08 03:27:00,47.0,46.7,29.68,West,265,0.0,0.0,99,0.00,,,0.00,0.00,VWS V14.01,2013-05-08 07:27:00,
2013-05-08 03:28:00,47.0,46.7,29.68,West,265,0.0,0.0,99,0.00,,,0.00,0.00,VWS V14.01,2013-05-08 07:28:00,
2013-05-08 03:29:00,46.8,46.5,29.68,West,265,0.0,0.0,99,0.00,,,0.00,0.00,VWS V14.01,2013-05-08 07:29:00,
2013-05-08 03:30:00,47.1,46.8,29.68,West,265,0.0,0.0,99,0.00,,,0.00,0.00,VWS V14.01,2013-05-08 07:30:00,
2013-05-08 03:31:00,47.1,46.8,29.68,West,265,0.0,0.0,99,0.00,,,0.00,0.00,VWS V14.01,2013-05-08 07:31:00,
2013-05-08 03:32:00,47.1,46.8,29.68,West,265,0.0,0.0,99,0.00,,,0.00,0.00,VWS V14.01,2013-05-08 07:32:00,
2013-05-08 03:33:00,47.1,46.8,29.68,West,265,0.0,0.0,99,0.00,,,0.00,0.00,VWS V14.01,2013-05-08 07:33:00,
2013-05-08 03:34:00,47.1,46.8,29.68,West,265,0.0,0.0,99,0.00,,,0.00,0.00,VWS V14.01,2013-05-08 07:34:00,
2013-05-08 03:35:00,47.1,46.8,29.68,West,265,0.0,0.0,99,0.00,,,0.00,0.00,VWS V14.01,2013-05-08 07:35:00,
2013-05-08 03:36:00,47.3,47.0,29.68,West,265,0.0,0.0,99,0.00,,,0.00,0.00,VWS V14.01,2013-05-08 07:36:00,
2013-05-08 03:37:00,47.3,47.0,29.68,West,265,0.0,0.0,99,0.00,,,0.00,0.00,VWS V14.01,2013-05-08 07:37:00,
2013-05-08 03:38:00,47.3,47.0,29.68,West,265,0.0,0.0,99,0.00,,,0.00,0.00,VWS V14.01,2013-05-08 07:38:00,
2013-05-08 03:39:00,47.3,47.0,29.68,NE,47,0.0,0.0,99,0.00,,,0.00,0.00,VWS V14.01,2013-05-08 07:39:00,
2013-05-08 03:40:00,47.1,46.8,29.68,West,265,0.0,0.0,99,0.00,,,0.00,0.00,VWS V14.01,2013-05-08 07:40:00,
2013-05-08 03:41:00,47.3,47.0,29.68,NE,47,0.0,0.0,99,0.00,,,0.00,0.00,VWS V14.01,2013-05-08 07:41:00,
2013-05-08 03:42:00,47.3,47.0,29.68,NE,47,0.0,0.0,99,0.00,,,0.00,0.00,VWS V14.01,2013-05-08 07:42:00,
2013-05-08 03:43:00,47.3,47.0,29.68,NE,47,0.0,0.0,99,0.00,,,0.00,0.00,VWS V14.01,2013-05-08 07:43:00,
2013-05-08 03:44:00,47.3,47.0,29.68,NE,47,0.0,0.0,99,0.00,,,0.00,0.00,VWS V14.01,2013-05-08 07:44:00,
2013-05-08 03:45:00,47.3,47.0,29.68,NE,47,0.0,0.0,99,0.00,,,0.00,0.00,VWS V14.01,2013-05-08 07:45:00,
2013-05-08 03:46:00,47.3,47.0,29.68,NE,47,0.0,0.0,99,0.00,,,0.00,0.00,VWS V14.01,2013-05-08 07:46:00,
2013-05-08 03:47:00,47.3,47.0,29.68,NE,47,0.0,0.0,99,0.00,,,0.00,0.00,VWS V14.01,2013-05-08 07:47:00,
2013-05-08 03:48:00,47.3,47.0,29.68,NE,45,0.0,0.0,99,0.00,,,0.00,0.00,VWS V14.01,2013-05-08 07:48:00,
2013-05-08 03:49:00,47.3,47.0,29.68,NE,35,0.0,0.0,99,0.00,,,0.00,0.00,VWS V14.01,2013-05-08 07:49:00,
2013-05-08 03:50:00,47.3,47.0,29.68,NE,47,0.0,0.0,99,0.00,,,0.00,0.00,VWS V14.01,2013-05-08 07:50:00,
2013-05-08 03:51:00,47.1,46.8,29.68,NE,41,0.0,0.0,99,0.00,,,0.00,0.00,VWS V14.01,2013-05-08 07:51:00,
2013-05-08 03:52:00,47.1,46.8,29.68,NE,41,0.0,0.0,99,0.00,,,0.00,0.00,VWS V14.01,2013-05-08 07:52:00,
2013-05-08 03:53:00,47.1,46.8,29.68,NE,41,0.0,0.0,99,0.00,,,0.00,0.00,VWS V14.01,2013-05-08 07:53:00,
2013-05-08 03:54:00,47.1,46.8,29.68,NE,41,0.0,0.0,99,0.00,,,0.00,0.00,VWS V14.01,2013-05-08 07:54:00,
2013-05-08 03:55:00,47.1,46.8,29.68,NE,41,0.0,0.0,99,0.00,,,0.00,0.00,VWS V14.01,2013-05-08 07:55:00,
2013-05-08 03:56:00,47.1,46.8,29.68,NE,41,0.0,0.0,99,0.00,,,0.00,0.00,VWS V14.01,2013-05-08 07:56:00,
2013-05-08 03:57:00,47.1,46.8,29.68,NE,41,0.0,0.0,99,0.00,,,0.00,0.00,VWS V14.01,2013-05-08 07:57:00,
2013-05-08 03:58:00,47.1,46.8,29.68,NE,41,0.0,0.0,99,0.00,,,0.00,0.00,VWS V14.01,2013-05-08 07:58:00,
2013-05-08 03:59:00,47.1,46.8,29.68,NE,41,0.0,0.0,99,0.00,,,0.00,0.00,VWS V14.01,2013-05-08 07:59:00,
2013-05-08 04:00:00,47.1,46.8,29.68,NE,41,0.0,0.0,99,0.00,,,0.00,0.00,VWS V14.01,2013-05-08 08:00:00,
2013-05-08 04:01:00,47.1,46.8,29.68,NE,41,0.0,0.0,99,0.00,,,0.00,0.00,VWS V14.01,2013-05-08 08:01:00,
2013-05-08 04:02:00,47.1,46.8,29.68,NE,41,0.0,0.0,99,0.00,,,0.00,0.00,VWS V14.01,2013-05-08 08:02:00,
2013-05-08 04:03:00,47.1,46.8,29.68,NE,41,0.0,0.0,99,0.00,,,0.00,0.00,VWS V14.01,2013-05-08 08:03:00,
2013-05-08 04:04:00,47.1,46.8,29.68,NE,41,0.0,0.0,99,0.00,,,0.00,0.00,VWS V14.01,2013-05-08 08:04:00,
2013-05-08 04:05:00,47.0,46.7,29.68,NE,41,0.0,0.0,99,0.00,,,0.00,0.00,VWS V14.01,2013-05-08 08:05:00,
2013-05-08 04:06:00,47.0,46.7,29.68,NE,41,0.0,0.0,99,0.00,,,0.00,0.00,VWS V14.01,2013-05-08 08:06:00,
2013-05-08 04:07:00,47.0,46.7,29.68,NE,41,0.0,0.0,99,0.00,,,0.00,0.00,VWS V14.01,2013-05-08 08:07:00,
2013-05-08 04:08:00,47.1,46.8,29.68,NE,41,0.0,0.0,99,0.00,,,0.00,0.00,VWS V14.01,2013-05-08 08:08:00,
2013-05-08 04:09:00,47.0,46.7,29.68,NE,41,0.0,0.0,99,0.00,,,0.00,0.00,VWS V14.01,2013-05-08 08:09:00,
2013-05-08 04:10:00,47.0,46.7,29.68,NE,41,0.0,0.0,99,0.00,,,0.00,0.00,VWS V14.01,2013-05-08 08:10:00,
2013-05-08 04:11:00,47.0,46.7,29.68,NE,41,0.0,0.0,99,0.00,,,0.00,0.00,VWS V14.01,2013-05-08 08:11:00,
2013-05-08 04:12:00,47.0,46.7,29.68,NE,41,0.0,0.0,99,0.00,,,0.00,0.00,VWS V14.01,2013-05-08 08:12:00,
2013-05-08 04:13:00,47.0,46.7,29.68,NE,41,0.0,0.0,99,0.00,,,0.00,0.00,VWS V14.01,2013-05-08 08:13:00,
2013-05-08 04:14:00,47.0,46.7,29.68,NE,41,0.0,0.0,99,0.00,,,0.00,0.00,VWS V14.01,2013-05-08 08:14:00,
2013-05-08 04:15:00,47.0,46.7,29.67,NE,41,0.0,0.0,99,0.00,,,0.00,0.00,VWS V14.01,2013-05-08 08:15:00,
2013-05-08 04:16:00,47.0,46.7,29.67,NE,41,0.0,0.0,99,0.00,,,0.00,0.00,VWS V14.01,2013-05-08 08:16:00,
2013-05-08 04:17:00,47.0,46.7,29.67,NE,41,0.0,0.0,99,0.00,,,0.00,0.00,VWS V14.01,2013-05-08 08:17:00,
2013-05-08 04:18:00,47.0,46.7,29.67,NE,41,0.0,0.0,99,0.00,,,0.00,0.00,VWS V14.01,2013-05-08 08:18:00,
2013-05-08 04:19:00,47.0,46.7,29.67,NE,41,0.0,0.0,99,0.00,,,0.00,0.00,VWS V14.01,2013-05-08 08:19:00,
2013-05-08 04:20:00,47.0,46.7,29.67,NE,41,0.0,0.0,99,0.00,,,0.00,0.00,VWS V14.01,2013-05-08 08:20:00,
2013-05-08 04:21:00,47.0,46.7,29.67,NE,41,0.0,0.0,99,0.00,,,0.00,0.00,VWS V14.01,2013-05-08 08:21:00,
2013-05-08 04:22:00,47.0,46.7,29.67,NE,41,0.0,0.0,99,0.00,,,0.00,0.00,VWS V14.01,2013-05-08 08:22:00,
2013-05-08 04:23:00,47.0,46.7,29.67,NE,41,0.0,0.0,99,0.00,,,0.00,0.00,VWS V14.01,2013-05-08 08:23:00,
2013-05-08 04:24:00,47.0,46.7,29.67,NE,41,0.0,0.0,99,0.00,,,0.00,0.00,VWS V14.01,2013-05-08 08:24:00,
2013-05-08 04:25:00,47.0,46.7,29.67,NE,41,0.0,0.0,99,0.00,,,0.00,0.00,VWS V14.01,2013-05-08 08:25:00,
2013-05-08 04:26:00,47.0,46.7,29.67,NE,41,0.0,0.0,99,0.00,,,0.00,0.00,VWS V14.01,2013-05-08 08:26:00,
2013-05-08 04:27:00,47.0,46.7,29.67,NE,41,0.0,0.0,99,0.00,,,0.00,0.00,VWS V14.01,2013-05-08 08:27:00,
2013-05-08 04:28:00,47.0,46.7,29.67,NE,41,0.0,0.0,99,0.00,,,0.00,0.00,VWS V14.01,2013-05-08 08:28:00,
2013-05-08 04:29:00,46.8,46.5,29.67,NE,41,0.0,0.0,99,0.00,,,0.00,0.00,VWS V14.01,2013-05-08 08:29:00,
2013-05-08 04:30:00,47.0,46.7,29.67,NE,41,0.0,0.0,99,0.00,,,0.00,0.00,VWS V14.01,2013-05-08 08:30:00,
2013-05-08 04:31:00,46.8,46.5,29.67,NE,41,0.0,0.0,99,0.00,,,0.00,0.00,VWS V14.01,2013-05-08 08:31:00,
2013-05-08 04:32:00,46.8,46.5,29.67,NE,41,0.0,0.0,99,0.00,,,0.00,0.00,VWS V14.01,2013-05-08 08:32:00,
2013-05-08 04:33:00,46.8,46.5,29.67,NE,41,0.0,0.0,99,0.00,,,0.00,0.00,VWS V14.01,2013-05-08 08:33:00,
2013-05-08 04:34:00,46.8,46.5,29.67,NE,41,0.0,0.0,99,0.00,,,0.00,0.00,VWS V14.01,2013-05-08 08:34:00,
2013-05-08 04:35:00,46.8,46.5,29.67,NE,41,0.0,0.0,99,0.00,,,0.00,0.00,VWS V14.01,2013-05-08 08:35:00,
2013-05-08 04:36:00,46.8,46.5,29.67,NE,41,0.0,0.0,99,0.00,,,0.00,0.00,VWS V14.01,2013-05-08 08:36:00,
2013-05-08 04:37:00,46.8,46.5,29.67,NE,41,0.0,0.0,99,0.00,,,0.00,0.00,VWS V14.01,2013-05-08 08:37:00,
2013-05-08 04:38:00,46.8,46.5,29.67,NE,41,0.0,0.0,99,0.00,,,0.00,0.00,VWS V14.01,2013-05-08 08:38:00,
2013-05-08 04:39:00,46.8,46.5,29.67,NE,41,0.0,0.0,99,0.00,,,0.00,0.00,VWS V14.01,2013-05-08 08:39:00,
2013-05-08 04:40:00,46.8,46.5,29.67,NE,41,0.0,0.0,99,0.00,,,0.00,0.00,VWS V14.01,2013-05-08 08:40:00,
2013-05-08 04:41:00,46.8,46.5,29.67,NE,41,0.0,0.0,99,0.00,,,0.00,0.00,VWS V14.01,2013-05-08 08:41:00,
2013-05-08 04:42:00,46.7,46.4,29.67,NE,41,0.0,0.0,99,0.00,,,0.00,0.00,VWS V14.01,2013-05-08 08:42:00,
2013-05-08 04:43:00,46.7,46.4,29.67,NE,41,0.0,0.0,99,0.00,,,0.00,0.00,VWS V14.01,2013-05-08 08:43:00,
2013-05-08 04:44:00,46.7,46.4,29.67,NE,41,0.0,0.0,99,0.00,,,0.00,0.00,VWS V14.01,2013-05-08 08:44:00,
2013-05-08 04:45:00,46.7,46.4,29.68,NE,41,0.0,0.0,99,0.00,,,0.00,0.00,VWS V14.01,2013-05-08 08:45:00,
2013-05-08 04:46:00,46.7,46.4,29.68,NE,41,0.0,0.0,99,0.00,,,0.00,0.00,VWS V14.01,2013-05-08 08:46:00,
2013-05-08 04:47:00,46.7,46.4,29.67,NE,41,0.0,0.0,99,0.00,,,0.00,0.00,VWS V14.01,2013-05-08 08:47:00,
2013-05-08 04:48:00,46.7,46.4,29.68,NE,41,0.0,0.0,99,0.00,,,0.00,0.00,VWS V14.01,2013-05-08 08:48:00,
2013-05-08 04:49:00,46.7,46.4,29.68,NE,41,0.0,0.0,99,0.00,,,0.00,0.00,VWS V14.01,2013-05-08 08:49:00,
2013-05-08 04:50:00,46.7,46.4,29.68,NE,41,0.0,0.0,99,0.00,,,0.00,0.00,VWS V14.01,2013-05-08 08:50:00,
2013-05-08 04:51:00,46.7,46.4,29.68,NE,41,0.0,0.0,99,0.00,,,0.00,0.00,VWS V14.01,2013-05-08 08:51:00,
2013-05-08 04:52:00,46.7,46.4,29.68,NE,41,0.0,0.0,99,0.00,,,0.00,0.00,VWS V14.01,2013-05-08 08:52:00,
2013-05-08 04:53:00,46.7,46.4,29.68,NE,41,0.0,0.0,99,0.00,,,0.00,0.00,VWS V14.01,2013-05-08 08:53:00,
2013-05-08 04:54:00,46.7,46.4,29.68,NE,41,0.0,0.0,99,0.00,,,0.00,0.00,VWS V14.01,2013-05-08 08:54:00,
2013-05-08 04:55:00,46.7,46.4,29.68,NE,41,0.0,0.0,99,0.00,,,0.00,0.00,VWS V14.01,2013-05-08 08:55:00,
2013-05-08 04:56:00,46.7,46.4,29.68,NE,41,0.0,0.0,99,0.00,,,0.00,0.00,VWS V14.01,2013-05-08 08:56:00,
2013-05-08 04:57:00,46.7,46.4,29.68,NE,41,0.0,0.0,99,0.00,,,0.00,0.00,VWS V14.01,2013-05-08 08:57:00,
2013-05-08 04:58:00,46.7,46.4,29.68,NE,41,0.0,0.0,99,0.00,,,0.00,0.00,VWS V14.01,2013-05-08 08:58:00,
2013-05-08 04:59:00,46.7,46.4,29.68,NE,41,0.0,0.0,99,0.00,,,0.00,0.00,VWS V14.01,2013-05-08 08:59:00,
2013-05-08 05:00:00,46.7,46.4,29.69,NE,41,0.0,0.0,99,0.00,,,0.00,0.00,VWS V14.01,2013-05-08 09:00:00,
2013-05-08 05:01:00,46.7,46.4,29.69,NE,41,0.0,0.0,99,0.00,,,0.00,0.00,VWS V14.01,2013-05-08 09:01:00,
2013-05-08 05:02:00,46.7,46.4,29.68,NE,41,0.0,0.0,99,0.00,,,0.00,0.00,VWS V14.01,2013-05-08 09:02:00,
2013-05-08 05:03:00,46.7,46.4,29.69,NE,41,0.0,0.0,99,0.00,,,0.00,0.00,VWS V14.01,2013-05-08 09:03:00,
2013-05-08 05:04:00,46.7,46.4,29.69,NE,41,0.0,0.0,99,0.00,,,0.00,0.00,VWS V14.01,2013-05-08 09:04:00,
2013-05-08 05:05:00,46.7,46.4,29.69,NE,41,0.0,0.0,99,0.00,,,0.00,0.00,VWS V14.01,2013-05-08 09:05:00,
2013-05-08 05:06:00,46.7,46.4,29.69,NE,41,0.0,0.0,99,0.00,,,0.00,0.00,VWS V14.01,2013-05-08 09:06:00,
2013-05-08 05:07:00,46.7,46.4,29.69,NE,41,0.0,0.0,99,0.00,,,0.00,0.00,VWS V14.01,2013-05-08 09:07:00,
2013-05-08 05:08:00,46.7,46.4,29.69,NE,41,0.0,0.0,99,0.00,,,0.00,0.00,VWS V14.01,2013-05-08 09:08:00,
2013-05-08 05:09:00,46.8,46.5,29.69,NE,41,0.0,0.0,99,0.00,,,0.00,0.00,VWS V14.01,2013-05-08 09:09:00,
2013-05-08 05:10:00,46.8,46.5,29.69,NE,41,0.0,0.0,99,0.00,,,0.00,0.00,VWS V14.01,2013-05-08 09:10:00,
2013-05-08 05:11:00,46.8,46.5,29.69,NE,41,0.0,0.0,99,0.00,,,0.00,0.00,VWS V14.01,2013-05-08 09:11:00,
2013-05-08 05:12:00,46.8,46.5,29.69,NE,41,0.0,0.0,99,0.00,,,0.00,0.00,VWS V14.01,2013-05-08 09:12:00,
2013-05-08 05:13:00,46.8,46.5,29.69,NE,41,0.0,0.0,99,0.00,,,0.00,0.00,VWS V14.01,2013-05-08 09:13:00,
2013-05-08 05:14:00,46.8,46.5,29.69,NE,41,0.0,0.0,99,0.00,,,0.00,0.00,VWS V14.01,2013-05-08 09:14:00,
2013-05-08 05:15:00,47.0,46.7,29.68,NE,41,0.0,0.0,99,0.00,,,0.00,0.00,VWS V14.01,2013-05-08 09:15:00,
2013-05-08 05:16:00,47.0,46.7,29.68,NE,41,0.0,0.0,99,0.00,,,0.00,0.00,VWS V14.01,2013-05-08 09:16:00,
2013-05-08 05:17:00,47.0,46.7,29.68,NE,41,0.0,0.0,99,0.00,,,0.00,0.00,VWS V14.01,2013-05-08 09:17:00,
2013-05-08 05:18:00,47.0,46.7,29.68,NE,41,0.0,0.0,99,0.00,,,0.00,0.00,VWS V14.01,2013-05-08 09:18:00,
2013-05-08 05:19:00,47.0,46.7,29.69,NE,41,0.0,0.0,99,0.00,,,0.00,0.00,VWS V14.01,2013-05-08 09:19:00,
2013-05-08 05:20:00,47.0,46.7,29.68,NE,41,0.0,0.0,99,0.00,,,0.00,0.00,VWS V14.01,2013-05-08 09:20:00,
2013-05-08 05:21:00,47.0,46.7,29.68,NE,41,0.0,0.0,99,0.00,,,0.00,0.00,VWS V14.01,2013-05-08 09:21:00,
2013-05-08 05:22:00,47.1,46.8,29.68,NE,41,0.0,0.0,99,0.00,,,0.00,0.00,VWS V14.01,2013-05-08 09:22:00,
2013-05-08 05:23:00,47.1,46.8,29.68,NE,41,0.0,0.0,99,0.00,,,0.00,0.00,VWS V14.01,2013-05-08 09:23:00,
2013-05-08 05:24:00,47.1,46.8,29.68,NE,41,0.0,0.0,99,0.00,,,0.00,0.00,VWS V14.01,2013-05-08 09:24:00,
2013-05-08 05:25:00,47.0,46.7,29.68,NE,41,0.0,0.0,99,0.00,,,0.00,0.00,VWS V14.01,2013-05-08 09:25:00,
2013-05-08 05:26:00,47.1,46.8,29.68,NE,41,0.0,0.0,99,0.00,,,0.00,0.00,VWS V14.01,2013-05-08 09:26:00,
2013-05-08 05:27:00,47.1,46.8,29.68,NE,41,0.0,0.0,99,0.00,,,0.00,0.00,VWS V14.01,2013-05-08 09:27:00,
2013-05-08 05:28:00,47.1,46.8,29.68,NE,41,0.0,0.0,99,0.00,,,0.00,0.00,VWS V14.01,2013-05-08 09:28:00,
2013-05-08 05:29:00,47.1,46.8,29.68,NE,41,0.0,0.0,99,0.00,,,0.00,0.00,VWS V14.01,2013-05-08 09:29:00,
2013-05-08 05:30:00,47.1,46.8,29.68,NE,41,0.0,0.0,99,0.00,,,0.00,0.00,VWS V14.01,2013-05-08 09:30:00,
2013-05-08 05:31:00,47.1,46.8,29.68,NE,41,0.0,0.0,99,0.00,,,0.00,0.00,VWS V14.01,2013-05-08 09:31:00,
2013-05-08 05:32:00,47.1,46.8,29.68,NE,41,0.0,0.0,99,0.00,,,0.00,0.00,VWS V14.01,2013-05-08 09:32:00,
2013-05-08 05:33:00,47.1,46.8,29.68,NE,41,0.0,0.0,99,0.00,,,0.00,0.00,VWS V14.01,2013-05-08 09:33:00,
2013-05-08 05:34:00,47.1,46.8,29.68,NE,41,0.0,0.0,99,0.00,,,0.00,0.00,VWS V14.01,2013-05-08 09:34:00,
2013-05-08 05:35:00,47.1,46.8,29.68,NE,41,0.0,0.0,99,0.00,,,0.00,0.00,VWS V14.01,2013-05-08 09:35:00,
2013-05-08 05:36:00,47.1,46.8,29.68,NE,41,0.0,0.0,99,0.00,,,0.00,0.00,VWS V14.01,2013-05-08 09:36:00,
2013-05-08 05:37:00,47.1,46.8,29.68,NE,41,0.0,0.0,99,0.00,,,0.00,0.00,VWS V14.01,2013-05-08 09:37:00,
2013-05-08 05:38:00,47.1,46.8,29.68,NE,41,0.0,0.0,99,0.00,,,0.00,0.00,VWS V14.01,2013-05-08 09:38:00,
2013-05-08 05:39:00,47.1,46.8,29.68,NE,41,0.0,0.0,99,0.00,,,0.00,0.00,VWS V14.01,2013-05-08 09:39:00,
2013-05-08 05:40:00,47.1,46.8,29.68,NE,41,0.0,0.0,99,0.00,,,0.00,0.00,VWS V14.01,2013-05-08 09:40:00,
2013-05-08 05:41:00,47.1,46.8,29.68,NE,41,0.0,0.0,99,0.00,,,0.00,0.00,VWS V14.01,2013-05-08 09:41:00,
2013-05-08 05:42:00,47.1,46.8,29.68,NE,41,0.0,0.0,99,0.00,,,0.00,0.00,VWS V14.01,2013-05-08 09:42:00,
2013-05-08 05:43:00,47.1,46.8,29.68,NE,41,0.0,0.0,99,0.00,,,0.00,0.00,VWS V14.01,2013-05-08 09:43:00,
2013-05-08 05:44:00,47.0,46.7,29.68,NE,41,0.0,0.0,99,0.00,,,0.00,0.00,VWS V14.01,2013-05-08 09:44:00,
2013-05-08 05:45:00,47.0,46.7,29.69,NE,41,0.0,0.0,99,0.00,,,0.00,0.00,VWS V14.01,2013-05-08 09:45:00,
2013-05-08 05:46:00,47.0,46.7,29.69,NE,41,0.0,0.0,99,0.00,,,0.00,0.00,VWS V14.01,2013-05-08 09:46:00,
2013-05-08 05:47:00,47.0,46.7,29.69,NE,41,0.0,0.0,99,0.00,,,0.00,0.00,VWS V14.01,2013-05-08 09:47:00,
2013-05-08 05:48:00,47.0,46.7,29.68,NE,41,0.0,0.0,99,0.00,,,0.00,0.00,VWS V14.01,2013-05-08 09:48:00,
2013-05-08 05:49:00,47.0,46.7,29.69,NE,41,0.0,0.0,99,0.00,,,0.00,0.00,VWS V14.01,2013-05-08 09:49:00,
2013-05-08 05:50:00,47.0,46.7,29.69,NE,41,0.0,0.0,99,0.00,,,0.00,0.00,VWS V14.01,2013-05-08 09:50:00,
2013-05-08 05:51:00,47.0,46.7,29.69,NE,41,0.0,0.0,99,0.00,,,0.00,0.00,VWS V14.01,2013-05-08 09:51:00,
2013-05-08 05:52:00,47.0,46.7,29.69,NE,41,0.0,0.0,99,0.00,,,0.00,0.00,VWS V14.01,2013-05-08 09:52:00,
2013-05-08 05:53:00,47.0,46.7,29.69,NE,41,0.0,0.0,99,0.00,,,0.00,0.00,VWS V14.01,2013-05-08 09:53:00,
2013-05-08 05:54:00,47.0,46.7,29.69,NE,41,0.0,0.0,99,0.00,,,0.00,0.00,VWS V14.01,2013-05-08 09:54:00,
2013-05-08 05:55:00,47.0,46.7,29.69,NE,41,0.0,0.0,99,0.00,,,0.00,0.00,VWS V14.01,2013-05-08 09:55:00,
2013-05-08 05:56:00,47.0,46.7,29.69,NE,41,0.0,0.0,99,0.00,,,0.00,0.00,VWS V14.01,2013-05-08 09:56:00,
2013-05-08 05:57:00,47.0,46.7,29.69,NE,41,0.0,0.0,99,0.00,,,0.00,0.00,VWS V14.01,2013-05-08 09:57:00,
2013-05-08 05:58:00,47.0,46.7,29.69,NE,41,0.0,0.0,99,0.00,,,0.00,0.00,VWS V14.01,2013-05-08 09:58:00,
2013-05-08 05:59:00,47.0,46.7,29.69,NE,41,0.0,0.0,99,0.00,,,0.00,0.00,VWS V14.01,2013-05-08 09:59:00,
2013-05-08 06:00:00,47.0,46.7,29.69,NE,41,0.0,0.0,99,0.00,,,0.00,0.00,VWS V14.01,2013-05-08 10:00:00,
2013-05-08 06:01:00,47.0,46.7,29.69,NE,41,0.0,0.0,99,0.00,,,0.00,0.00,VWS V14.01,2013-05-08 10:01:00,
2013-05-08 06:02:00,47.0,46.7,29.69,NE,41,0.0,0.0,99,0.00,,,0.00,0.00,VWS V14.01,2013-05-08 10:02:00,
2013-05-08 06:03:00,47.0,46.7,29.69,NE,41,0.0,0.0,99,0.00,,,0.00,0.00,VWS V14.01,2013-05-08 10:03:00,
2013-05-08 06:04:00,47.0,46.7,29.69,NE,41,0.0,0.0,99,0.00,,,0.00,0.00,VWS V14.01,2013-05-08 10:04:00,
2013-05-08 06:05:00,47.0,46.7,29.69,NE,41,0.0,0.0,99,0.00,,,0.00,0.00,VWS V14.01,2013-05-08 10:05:00,
2013-05-08 06:06:00,47.0,46.7,29.69,NE,41,0.0,0.0,99,0.00,,,0.00,0.00,VWS V14.01,2013-05-08 10:06:00,
2013-05-08 06:07:00,47.0,46.7,29.69,NE,41,0.0,0.0,99,0.00,,,0.00,0.00,VWS V14.01,2013-05-08 10:07:00,
2013-05-08 06:08:00,47.0,46.7,29.69,NE,41,0.0,0.0,99,0.00,,,0.00,0.00,VWS V14.01,2013-05-08 10:08:00,
2013-05-08 06:09:00,47.0,46.7,29.69,NE,41,0.0,0.0,99,0.00,,,0.00,0.00,VWS V14.01,2013-05-08 10:09:00,
2013-05-08 06:10:00,47.0,46.7,29.69,NE,41,0.0,0.0,99,0.00,,,0.00,0.00,VWS V14.01,2013-05-08 10:10:00,
2013-05-08 06:11:00,47.0,46.7,29.69,NE,41,0.0,0.0,99,0.00,,,0.00,0.00,VWS V14.01,2013-05-08 10:11:00,
2013-05-08 06:12:00,47.0,46.7,29.69,NE,41,0.0,0.0,99,0.00,,,0.00,0.00,VWS V14.01,2013-05-08 10:12:00,
2013-05-08 06:13:00,47.0,46.7,29.69,NE,41,0.0,0.0,99,0.00,,,0.00,0.00,VWS V14.01,2013-05-08 10:13:00,
2013-05-08 06:14:00,47.0,46.7,29.69,NE,41,0.0,0.0,99,0.00,,,0.00,0.00,VWS V14.01,2013-05-08 10:14:00,
2013-05-08 06:15:00,47.0,46.7,29.69,NE,41,0.0,0.0,99,0.00,,,0.00,0.00,VWS V14.01,2013-05-08 10:15:00,
2013-05-08 06:16:00,47.0,46.7,29.69,NE,41,0.0,0.0,99,0.00,,,0.00,0.00,VWS V14.01,2013-05-08 10:16:00,
2013-05-08 06:17:00,47.0,46.7,29.69,NE,41,0.0,0.0,99,0.00,,,0.00,0.00,VWS V14.01,2013-05-08 10:17:00,
2013-05-08 06:18:00,47.1,46.8,29.69,NE,41,0.0,0.0,99,0.00,,,0.00,0.00,VWS V14.01,2013-05-08 10:18:00,
2013-05-08 06:19:00,47.1,46.8,29.69,NE,41,0.0,0.0,99,0.00,,,0.00,0.00,VWS V14.01,2013-05-08 10:19:00,
2013-05-08 06:20:00,47.1,46.8,29.69,NE,41,0.0,0.0,99,0.00,,,0.00,0.00,VWS V14.01,2013-05-08 10:20:00,
2013-05-08 06:21:00,47.1,46.8,29.69,NE,41,0.0,0.0,99,0.00,,,0.00,0.00,VWS V14.01,2013-05-08 10:21:00,
2013-05-08 06:22:00,47.1,46.8,29.69,NE,41,0.0,0.0,99,0.00,,,0.00,0.00,VWS V14.01,2013-05-08 10:22:00,
2013-05-08 06:23:00,47.1,46.8,29.69,NE,41,0.0,0.0,99,0.00,,,0.00,0.00,VWS V14.01,2013-05-08 10:23:00,
2013-05-08 06:24:00,47.1,46.8,29.69,NE,41,0.0,0.0,99,0.00,,,0.00,0.00,VWS V14.01,2013-05-08 10:24:00,
2013-05-08 06:25:00,47.1,46.8,29.69,NE,41,0.0,0.0,99,0.00,,,0.00,0.00,VWS V14.01,2013-05-08 10:25:00,
2013-05-08 06:26:00,47.1,46.8,29.69,NE,41,0.0,0.0,99,0.00,,,0.00,0.00,VWS V14.01,2013-05-08 10:26:00,
2013-05-08 06:27:00,47.1,46.8,29.69,NE,41,0.0,0.0,99,0.00,,,0.00,0.00,VWS V14.01,2013-05-08 10:27:00,
2013-05-08 06:28:00,47.1,46.8,29.69,NE,41,0.0,0.0,99,0.00,,,0.00,0.00,VWS V14.01,2013-05-08 10:28:00,
2013-05-08 06:29:00,47.1,46.8,29.69,NE,41,0.0,0.0,99,0.00,,,0.00,0.00,VWS V14.01,2013-05-08 10:29:00,
2013-05-08 06:30:00,47.1,46.8,29.69,NE,41,0.0,0.0,99,0.00,,,0.00,0.00,VWS V14.01,2013-05-08 10:30:00,
2013-05-08 06:31:00,47.1,46.8,29.69,NE,41,0.0,0.0,99,0.00,,,0.00,0.00,VWS V14.01,2013-05-08 10:31:00,
2013-05-08 06:32:00,47.1,46.8,29.69,NE,41,0.0,0.0,99,0.00,,,0.00,0.00,VWS V14.01,2013-05-08 10:32:00,
2013-05-08 06:33:00,47.1,46.8,29.69,NE,41,0.0,0.0,99,0.00,,,0.00,0.00,VWS V14.01,2013-05-08 10:33:00,
2013-05-08 06:34:00,47.1,46.8,29.69,NE,41,0.0,0.0,99,0.00,,,0.00,0.00,VWS V14.01,2013-05-08 10:34:00,
2013-05-08 06:35:00,47.1,46.8,29.69,NE,41,0.0,0.0,99,0.00,,,0.00,0.00,VWS V14.01,2013-05-08 10:35:00,
2013-05-08 06:36:00,47.1,46.8,29.69,NE,41,0.0,0.0,99,0.00,,,0.00,0.00,VWS V14.01,2013-05-08 10:36:00,
2013-05-08 06:37:00,47.1,46.8,29.69,NE,41,0.0,0.0,99,0.00,,,0.00,0.00,VWS V14.01,2013-05-08 10:37:00,
2013-05-08 06:38:00,47.1,46.8,29.69,NE,41,0.0,0.0,99,0.00,,,0.00,0.00,VWS V14.01,2013-05-08 10:38:00,
2013-05-08 06:39:00,47.3,47.0,29.69,NE,41,0.0,0.0,99,0.00,,,0.00,5.00,VWS V14.01,2013-05-08 10:39:00,
2013-05-08 06:40:00,47.1,46.8,29.69,NE,41,0.0,0.0,99,0.00,,,0.00,0.00,VWS V14.01,2013-05-08 10:40:00,
2013-05-08 06:41:00,47.3,47.0,29.69,NE,41,0.0,0.0,99,0.00,,,0.00,5.00,VWS V14.01,2013-05-08 10:41:00,
2013-05-08 06:42:00,47.3,47.0,29.69,NE,42,0.0,0.0,99,0.00,,,0.00,5.00,VWS V14.01,2013-05-08 10:42:00,
2013-05-08 06:43:00,47.3,47.0,29.69,NE,48,0.0,0.0,99,0.00,,,0.00,7.00,VWS V14.01,2013-05-08 10:43:00,
2013-05-08 06:44:00,47.3,47.0,29.69,NE,48,0.0,0.0,99,0.00,,,0.00,7.00,VWS V14.01,2013-05-08 10:44:00,
2013-05-08 06:45:00,47.3,47.0,29.69,NE,47,0.0,0.0,99,0.00,,,0.00,7.00,VWS V14.01,2013-05-08 10:45:00,
2013-05-08 06:46:00,47.3,47.0,29.69,NE,41,0.0,0.0,99,0.00,,,0.00,5.00,VWS V14.01,2013-05-08 10:46:00,
2013-05-08 06:47:00,47.3,47.0,29.69,NE,48,0.0,0.0,99,0.00,,,0.00,7.00,VWS V14.01,2013-05-08 10:47:00,
2013-05-08 06:48:00,47.3,47.0,29.69,NE,47,0.0,0.0,99,0.00,,,0.00,9.00,VWS V14.01,2013-05-08 10:48:00,
2013-05-08 06:49:00,47.3,47.0,29.69,NE,41,0.0,0.0,99,0.00,,,0.00,9.00,VWS V14.01,2013-05-08 10:49:00,
2013-05-08 06:50:00,47.3,47.0,29.69,NE,41,0.0,0.0,99,0.00,,,0.00,9.00,VWS V14.01,2013-05-08 10:50:00,
2013-05-08 06:51:00,47.3,47.0,29.69,NE,48,0.0,0.0,99,0.00,,,0.00,7.00,VWS V14.01,2013-05-08 10:51:00,
2013-05-08 06:52:00,47.3,47.0,29.69,NE,49,0.0,0.0,99,0.00,,,0.00,11.00,VWS V14.01,2013-05-08 10:52:00,
2013-05-08 06:53:00,47.3,47.0,29.69,NE,48,0.0,0.0,99,0.00,,,0.00,11.00,VWS V14.01,2013-05-08 10:53:00,
2013-05-08 06:54:00,47.3,47.0,29.69,NE,37,0.0,0.0,99,0.00,,,0.00,11.00,VWS V14.01,2013-05-08 10:54:00,
2013-05-08 06:55:00,47.3,47.0,29.69,NE,37,0.0,0.0,99,0.00,,,0.00,11.00,VWS V14.01,2013-05-08 10:55:00,
2013-05-08 06:56:00,47.3,47.0,29.69,NE,41,0.0,0.0,99,0.00,,,0.00,9.00,VWS V14.01,2013-05-08 10:56:00,
2013-05-08 06:57:00,47.3,47.0,29.69,NE,42,0.0,0.0,99,0.00,,,0.00,12.00,VWS V14.01,2013-05-08 10:57:00,
2013-05-08 06:58:00,47.3,47.0,29.69,ENE,65,0.0,0.0,99,0.00,,,0.00,12.00,VWS V14.01,2013-05-08 10:58:00,
2013-05-08 06:59:00,47.3,47.0,29.69,ENE,65,0.0,0.0,99,0.00,,,0.00,12.00,VWS V14.01,2013-05-08 10:59:00,
2013-05-08 07:00:00,47.3,47.0,29.70,ENE,65,0.0,0.0,99,0.00,,,0.00,14.00,VWS V14.01,2013-05-08 11:00:00,
2013-05-08 07:01:00,47.3,47.0,29.69,NE,37,0.0,0.0,99,0.00,,,0.00,12.00,VWS V14.01,2013-05-08 11:01:00,
2013-05-08 07:02:00,47.3,47.0,29.70,ENE,65,0.0,0.0,99,0.00,,,0.00,14.00,VWS V14.01,2013-05-08 11:02:00,
2013-05-08 07:03:00,47.3,47.0,29.70,ENE,65,0.0,0.0,99,0.00,,,0.00,14.00,VWS V14.01,2013-05-08 11:03:00,
2013-05-08 07:04:00,47.3,47.0,29.70,ENE,65,0.0,0.0,99,0.00,,,0.00,12.00,VWS V14.01,2013-05-08 11:04:00,
2013-05-08 07:05:00,47.3,47.0,29.70,ENE,65,0.0,0.0,99,0.00,,,0.00,12.00,VWS V14.01,2013-05-08 11:05:00,
2013-05-08 07:06:00,47.3,47.0,29.70,ENE,65,0.0,0.0,99,0.00,,,0.00,14.00,VWS V14.01,2013-05-08 11:06:00,
2013-05-08 07:07:00,47.3,47.0,29.70,ENE,65,0.0,0.0,99,0.00,,,0.00,12.00,VWS V14.01,2013-05-08 11:07:00,
2013-05-08 07:08:00,47.3,47.0,29.70,ENE,65,0.0,0.0,99,0.00,,,0.00,12.00,VWS V14.01,2013-05-08 11:08:00,
2013-05-08 07:09:00,47.3,47.0,29.70,ENE,65,0.0,0.0,99,0.00,,,0.00,11.00,VWS V14.01,2013-05-08 11:09:00,
2013-05-08 07:10:00,47.3,47.0,29.70,ENE,65,0.0,0.0,99,0.00,,,0.00,11.00,VWS V14.01,2013-05-08 11:10:00,
2013-05-08 07:11:00,47.3,47.0,29.70,ENE,65,0.0,0.0,99,0.00,,,0.00,11.00,VWS V14.01,2013-05-08 11:11:00,
2013-05-08 07:12:00,47.3,47.0,29.70,ENE,65,0.0,0.0,99,0.00,,,0.00,12.00,VWS V14.01,2013-05-08 11:12:00,
2013-05-08 07:13:00,47.4,47.1,29.70,ENE,65,0.0,0.0,99,0.00,,,0.00,11.00,VWS V14.01,2013-05-08 11:13:00,
2013-05-08 07:14:00,47.4,47.1,29.70,ENE,65,0.0,0.0,99,0.00,,,0.00,11.00,VWS V14.01,2013-05-08 11:14:00,
2013-05-08 07:15:00,47.4,47.1,29.71,ENE,65,0.0,0.0,99,0.00,,,0.00,11.00,VWS V14.01,2013-05-08 11:15:00,
2013-05-08 07:16:00,47.4,47.1,29.71,ENE,65,0.0,0.0,99,0.00,,,0.00,11.00,VWS V14.01,2013-05-08 11:16:00,
2013-05-08 07:17:00,47.3,47.0,29.70,ENE,65,0.0,0.0,99,0.00,,,0.00,11.00,VWS V14.01,2013-05-08 11:17:00,
2013-05-08 07:18:00,47.4,47.1,29.71,ENE,65,0.0,0.0,99,0.00,,,0.00,16.00,VWS V14.01,2013-05-08 11:18:00,
2013-05-08 07:19:00,47.4,47.1,29.71,ENE,65,0.0,0.0,99,0.00,,,0.00,16.00,VWS V14.01,2013-05-08 11:19:00,
2013-05-08 07:20:00,47.4,47.1,29.71,ENE,65,0.0,0.0,99,0.00,,,0.00,16.00,VWS V14.01,2013-05-08 11:20:00,
2013-05-08 07:21:00,47.4,47.1,29.71,ENE,65,0.0,0.0,99,0.00,,,0.00,16.00,VWS V14.01,2013-05-08 11:21:00,
2013-05-08 07:22:00,47.4,47.1,29.71,ENE,65,0.0,0.0,99,0.00,,,0.00,16.00,VWS V14.01,2013-05-08 11:22:00,
2013-05-08 07:23:00,47.4,47.1,29.71,ENE,64,0.0,0.0,99,0.00,,,0.00,16.00,VWS V14.01,2013-05-08 11:23:00,
2013-05-08 07:24:00,47.4,47.1,29.71,ENE,65,0.0,0.0,99,0.00,,,0.00,16.00,VWS V14.01,2013-05-08 11:24:00,
2013-05-08 07:25:00,47.4,47.1,29.71,ENE,65,0.0,0.0,99,0.00,,,0.00,18.00,VWS V14.01,2013-05-08 11:25:00,
2013-05-08 07:26:00,47.4,47.1,29.71,ENE,65,0.0,0.0,99,0.00,,,0.00,18.00,VWS V14.01,2013-05-08 11:26:00,
2013-05-08 07:27:00,47.4,47.1,29.71,ENE,65,0.0,0.0,99,0.00,,,0.00,18.00,VWS V14.01,2013-05-08 11:27:00,
2013-05-08 07:28:00,47.4,47.1,29.71,ENE,64,0.0,0.0,99,0.00,,,0.00,16.00,VWS V14.01,2013-05-08 11:28:00,
2013-05-08 07:29:00,47.6,47.3,29.71,ENE,65,0.0,0.0,99,0.00,,,0.00,18.00,VWS V14.01,2013-05-08 11:29:00,
2013-05-08 07:30:00,47.6,47.3,29.72,ENE,65,0.0,0.0,99,0.00,,,0.00,18.00,VWS V14.01,2013-05-08 11:30:00,
2013-05-08 07:31:00,47.6,47.3,29.72,ENE,65,0.0,0.0,99,0.00,,,0.00,18.00,VWS V14.01,2013-05-08 11:31:00,
2013-05-08 07:32:00,47.6,47.3,29.72,ENE,65,0.0,0.0,99,0.00,,,0.00,18.00,VWS V14.01,2013-05-08 11:32:00,
2013-05-08 07:33:00,47.6,47.3,29.71,ENE,65,0.0,0.0,99,0.00,,,0.00,18.00,VWS V14.01,2013-05-08 11:33:00,
2013-05-08 07:34:00,47.6,47.3,29.72,ENE,65,0.0,0.0,99,0.00,,,0.00,19.00,VWS V14.01,2013-05-08 11:34:00,
2013-05-08 07:35:00,47.6,47.3,29.72,ENE,65,0.0,0.0,99,0.00,,,0.00,19.00,VWS V14.01,2013-05-08 11:35:00,
2013-05-08 07:36:00,47.6,47.3,29.72,ENE,64,0.0,0.0,99,0.00,,,0.00,19.00,VWS V14.01,2013-05-08 11:36:00,
2013-05-08 07:37:00,47.6,47.3,29.72,ENE,65,0.0,0.0,99,0.00,,,0.00,19.00,VWS V14.01,2013-05-08 11:37:00,
2013-05-08 07:38:00,47.6,47.3,29.72,ENE,65,0.0,0.0,99,0.00,,,0.00,21.00,VWS V14.01,2013-05-08 11:38:00,
2013-05-08 07:39:00,47.6,47.3,29.72,ENE,65,0.0,0.0,99,0.00,,,0.00,19.00,VWS V14.01,2013-05-08 11:39:00,
2013-05-08 07:40:00,47.6,47.3,29.72,ENE,65,0.0,0.0,99,0.00,,,0.00,21.00,VWS V14.01,2013-05-08 11:40:00,
2013-05-08 07:41:00,47.6,47.3,29.72,ENE,65,0.0,0.0,99,0.00,,,0.00,21.00,VWS V14.01,2013-05-08 11:41:00,
2013-05-08 07:42:00,47.6,47.3,29.72,ENE,65,0.0,0.0,99,0.00,,,0.00,30.00,VWS V14.01,2013-05-08 11:42:00,
2013-05-08 07:43:00,47.6,47.3,29.72,ENE,65,0.0,0.0,99,0.00,,,0.00,30.00,VWS V14.01,2013-05-08 11:43:00,
2013-05-08 07:44:00,47.6,47.3,29.72,ENE,65,0.0,0.0,99,0.00,,,0.00,21.00,VWS V14.01,2013-05-08 11:44:00,
2013-05-08 07:45:00,47.6,47.3,29.72,ENE,65,0.0,0.0,99,0.00,,,0.00,30.00,VWS V14.01,2013-05-08 11:45:00,
2013-05-08 07:46:00,47.6,47.3,29.72,ENE,65,0.0,0.0,99,0.00,,,0.00,35.00,VWS V14.01,2013-05-08 11:46:00,
2013-05-08 07:47:00,47.6,47.3,29.72,ENE,65,0.0,0.0,99,0.00,,,0.00,35.00,VWS V14.01,2013-05-08 11:47:00,
2013-05-08 07:48:00,47.6,47.3,29.72,ENE,65,0.0,0.0,99,0.00,,,0.00,35.00,VWS V14.01,2013-05-08 11:48:00,
2013-05-08 07:49:00,47.6,47.3,29.72,ENE,65,0.0,0.0,99,0.00,,,0.00,30.00,VWS V14.01,2013-05-08 11:49:00,
2013-05-08 07:50:00,47.6,47.3,29.72,ENE,65,0.0,0.0,99,0.00,,,0.00,33.00,VWS V14.01,2013-05-08 11:50:00,
2013-05-08 07:51:00,47.6,47.3,29.72,ENE,65,0.0,0.0,99,0.00,,,0.00,33.00,VWS V14.01,2013-05-08 11:51:00,
2013-05-08 07:52:00,47.6,47.3,29.72,ENE,65,0.0,0.0,99,0.00,,,0.00,33.00,VWS V14.01,2013-05-08 11:52:00,
2013-05-08 07:53:00,47.6,47.3,29.72,ENE,65,0.0,0.0,99,0.00,,,0.00,33.00,VWS V14.01,2013-05-08 11:53:00,
2013-05-08 07:54:00,47.6,47.3,29.72,ENE,65,0.0,0.0,99,0.00,,,0.00,33.00,VWS V14.01,2013-05-08 11:54:00,
2013-05-08 07:55:00,47.6,47.3,29.72,ENE,65,0.0,0.0,99,0.00,,,0.00,33.00,VWS V14.01,2013-05-08 11:55:00,
2013-05-08 07:56:00,47.6,47.3,29.72,ENE,65,0.0,0.0,99,0.00,,,0.00,33.00,VWS V14.01,2013-05-08 11:56:00,
2013-05-08 07:57:00,47.6,47.3,29.72,ENE,65,0.0,0.0,99,0.00,,,0.00,33.00,VWS V14.01,2013-05-08 11:57:00,
2013-05-08 07:58:00,47.6,47.3,29.72,ENE,61,0.0,0.0,99,0.00,,,0.00,32.00,VWS V14.01,2013-05-08 11:58:00,
2013-05-08 07:59:00,47.6,47.3,29.72,ENE,65,0.0,0.0,99,0.00,,,0.00,32.00,VWS V14.01,2013-05-08 11:59:00,
2013-05-08 08:00:00,47.6,47.3,29.72,ENE,65,0.0,0.0,99,0.00,,,0.00,33.00,VWS V14.01,2013-05-08 12:00:00,
2013-05-08 08:01:00,47.6,47.3,29.73,ENE,65,0.0,0.0,99,0.00,,,0.00,32.00,VWS V14.01,2013-05-08 12:01:00,
2013-05-08 08:02:00,47.6,47.3,29.73,ENE,65,0.0,0.0,99,0.00,,,0.00,32.00,VWS V14.01,2013-05-08 12:02:00,
2013-05-08 08:03:00,47.6,47.3,29.73,ENE,64,0.0,0.0,99,0.00,,,0.00,33.00,VWS V14.01,2013-05-08 12:03:00,
2013-05-08 08:04:00,47.6,47.3,29.73,ENE,64,0.0,0.0,99,0.00,,,0.00,33.00,VWS V14.01,2013-05-08 12:04:00,
2013-05-08 08:05:00,47.6,47.3,29.73,ENE,65,0.0,0.0,99,0.00,,,0.00,32.00,VWS V14.01,2013-05-08 12:05:00,
2013-05-08 08:06:00,47.6,47.3,29.73,ENE,65,0.0,0.0,99,0.00,,,0.00,33.00,VWS V14.01,2013-05-08 12:06:00,
2013-05-08 08:07:00,47.6,47.3,29.73,ENE,65,0.0,0.0,99,0.00,,,0.00,35.00,VWS V14.01,2013-05-08 12:07:00,
2013-05-08 08:08:00,47.6,47.3,29.73,ENE,64,0.0,0.0,99,0.00,,,0.00,35.00,VWS V14.01,2013-05-08 12:08:00,
2013-05-08 08:09:00,47.6,47.3,29.73,ENE,65,0.0,0.0,99,0.00,,,0.00,35.00,VWS V14.01,2013-05-08 12:09:00,
2013-05-08 08:10:00,47.6,47.3,29.73,ENE,65,0.0,0.0,99,0.00,,,0.00,33.00,VWS V14.01,2013-05-08 12:10:00,
2013-05-08 08:11:00,47.6,47.3,29.73,ENE,65,0.0,0.0,99,0.00,,,0.00,33.00,VWS V14.01,2013-05-08 12:11:00,
2013-05-08 08:12:00,47.6,47.3,29.73,ENE,65,0.0,0.0,99,0.00,,,0.00,33.00,VWS V14.01,2013-05-08 12:12:00,
2013-05-08 08:13:00,47.6,47.3,29.73,ENE,65,0.0,0.0,99,0.00,,,0.00,33.00,VWS V14.01,2013-05-08 12:13:00,
2013-05-08 08:14:00,47.6,47.3,29.73,ENE,64,0.0,0.0,99,0.00,,,0.00,33.00,VWS V14.01,2013-05-08 12:14:00,
2013-05-08 08:15:00,47.6,47.3,29.73,ENE,65,0.0,0.0,99,0.00,,,0.00,35.00,VWS V14.01,2013-05-08 12:15:00,
2013-05-08 08:16:00,47.7,47.7,29.74,ENE,65,0.0,0.0,100,0.00,,,0.00,39.00,VWS V14.01,2013-05-08 12:16:00,
2013-05-08 08:17:00,47.7,47.7,29.74,ENE,65,0.0,0.0,100,0.00,,,0.00,39.00,VWS V14.01,2013-05-08 12:17:00,
2013-05-08 08:18:00,47.7,47.7,29.74,ENE,65,0.0,0.0,100,0.00,,,0.00,39.00,VWS V14.01,2013-05-08 12:18:00,
2013-05-08 08:19:00,47.7,47.7,29.74,ENE,62,0.0,0.0,100,0.00,,,0.00,33.00,VWS V14.01,2013-05-08 12:19:00,
2013-05-08 08:20:00,47.7,47.7,29.74,North,349,0.0,0.0,100,0.00,,,0.00,33.00,VWS V14.01,2013-05-08 12:20:00,
2013-05-08 08:21:00,47.7,47.7,29.74,ENE,65,0.0,0.0,100,0.00,,,0.00,39.00,VWS V14.01,2013-05-08 12:21:00,
2013-05-08 08:22:00,47.9,47.9,29.74,North,352,0.0,0.0,100,0.00,,,0.00,33.00,VWS V14.01,2013-05-08 12:22:00,
2013-05-08 08:23:00,47.9,47.9,29.74,North,353,0.0,0.0,100,0.00,,,0.00,26.00,VWS V14.01,2013-05-08 12:23:00,
2013-05-08 08:24:00,47.9,47.9,29.74,North,353,0.0,0.0,100,0.00,,,0.00,26.00,VWS V14.01,2013-05-08 12:24:00,
2013-05-08 08:25:00,47.9,47.9,29.74,North,353,0.0,0.0,100,0.00,,,0.00,26.00,VWS V14.01,2013-05-08 12:25:00,
2013-05-08 08:26:00,47.7,47.7,29.74,North,349,0.0,0.0,100,0.00,,,0.00,33.00,VWS V14.01,2013-05-08 12:26:00,
2013-05-08 08:27:00,47.9,47.9,29.74,NNE,17,0.0,0.0,100,0.00,,,0.00,26.00,VWS V14.01,2013-05-08 12:27:00,
2013-05-08 08:28:00,47.9,47.9,29.74,NNE,17,0.0,0.0,100,0.00,,,0.00,26.00,VWS V14.01,2013-05-08 12:28:00,
2013-05-08 08:29:00,47.9,47.9,29.74,NNE,18,0.0,0.0,100,0.00,,,0.00,26.00,VWS V14.01,2013-05-08 12:29:00,
2013-05-08 08:30:00,47.7,47.7,29.74,NE,40,0.0,0.0,100,0.00,,,0.00,26.00,VWS V14.01,2013-05-08 12:30:00,
2013-05-08 08:31:00,47.7,47.7,29.74,NE,40,0.0,0.0,100,0.00,,,0.00,26.00,VWS V14.01,2013-05-08 12:31:00,
2013-05-08 08:32:00,47.9,47.9,29.74,NNE,17,0.0,0.0,100,0.00,,,0.00,26.00,VWS V14.01,2013-05-08 12:32:00,
2013-05-08 08:33:00,47.7,47.7,29.74,NE,40,0.0,0.0,100,0.00,,,0.00,25.00,VWS V14.01,2013-05-08 12:33:00,
2013-05-08 08:34:00,47.7,47.7,29.74,NNE,25,0.0,0.0,100,0.00,,,0.00,25.00,VWS V14.01,2013-05-08 12:34:00,
2013-05-08 08:35:00,47.7,47.7,29.74,NNE,27,0.0,0.0,100,0.00,,,0.00,25.00,VWS V14.01,2013-05-08 12:35:00,
2013-05-08 08:36:00,47.7,47.7,29.74,NNE,27,0.0,0.0,100,0.00,,,0.00,21.00,VWS V14.01,2013-05-08 12:36:00,
2013-05-08 08:37:00,47.7,47.7,29.74,NE,40,0.0,0.0,100,0.00,,,0.00,25.00,VWS V14.01,2013-05-08 12:37:00,
2013-05-08 08:38:00,47.7,47.7,29.74,NNW,329,0.0,0.0,100,0.00,,,0.00,21.00,VWS V14.01,2013-05-08 12:38:00,
2013-05-08 08:39:00,47.7,47.7,29.74,NNE,13,0.0,0.0,100,0.00,,,0.00,21.00,VWS V14.01,2013-05-08 12:39:00,
2013-05-08 08:40:00,47.7,47.7,29.74,NNE,13,0.0,0.0,100,0.00,,,0.00,18.00,VWS V14.01,2013-05-08 12:40:00,
2013-05-08 08:41:00,47.7,47.7,29.74,NNE,13,0.0,0.0,100,0.00,,,0.00,18.00,VWS V14.01,2013-05-08 12:41:00,
2013-05-08 08:42:00,47.7,47.7,29.74,North,356,0.0,0.0,100,0.00,,,0.00,21.00,VWS V14.01,2013-05-08 12:42:00,
2013-05-08 08:43:00,47.9,47.9,29.74,NE,38,0.0,0.0,100,0.00,,,0.00,18.00,VWS V14.01,2013-05-08 12:43:00,
2013-05-08 08:44:00,47.9,47.9,29.74,NE,38,0.0,0.0,100,0.00,,,0.00,23.00,VWS V14.01,2013-05-08 12:44:00,
2013-05-08 08:45:00,47.9,47.9,29.75,NE,38,0.0,0.0,100,0.00,,,0.00,23.00,VWS V14.01,2013-05-08 12:45:00,
2013-05-08 08:46:00,47.9,47.9,29.75,NE,38,0.0,0.0,100,0.00,,,0.00,23.00,VWS V14.01,2013-05-08 12:46:00,
2013-05-08 08:47:00,47.9,47.9,29.74,NNE,13,0.0,0.0,100,0.00,,,0.00,18.00,VWS V14.01,2013-05-08 12:47:00,
2013-05-08 08:48:00,47.9,47.9,29.75,NE,40,0.0,0.0,100,0.00,,,0.00,21.00,VWS V14.01,2013-05-08 12:48:00,
2013-05-08 08:49:00,47.9,47.9,29.75,NE,38,0.0,0.0,100,0.00,,,0.00,21.00,VWS V14.01,2013-05-08 12:49:00,
2013-05-08 08:50:00,47.9,47.9,29.75,NE,38,0.0,0.0,100,0.00,,,0.00,21.00,VWS V14.01,2013-05-08 12:50:00,
2013-05-08 08:51:00,47.9,47.9,29.75,NE,38,0.0,0.0,100,0.00,,,0.00,21.00,VWS V14.01,2013-05-08 12:51:00,
2013-05-08 08:52:00,47.9,47.9,29.75,NE,38,0.0,0.0,100,0.00,,,0.00,21.00,VWS V14.01,2013-05-08 12:52:00,
2013-05-08 08:53:00,47.9,47.9,29.75,NE,40,0.0,0.0,100,0.00,,,0.00,21.00,VWS V14.01,2013-05-08 12:53:00,
2013-05-08 08:54:00,47.9,47.9,29.75,North,0,0.0,0.0,100,0.00,,,0.00,19.00,VWS V14.01,2013-05-08 12:54:00,
2013-05-08 08:55:00,47.9,47.9,29.75,North,0,0.0,0.0,100,0.00,,,0.00,19.00,VWS V14.01,2013-05-08 12:55:00,
2013-05-08 08:56:00,47.9,47.9,29.75,North,0,0.0,0.0,100,0.00,,,0.00,19.00,VWS V14.01,2013-05-08 12:56:00,
2013-05-08 08:57:00,47.9,47.9,29.75,North,0,0.0,0.0,100,0.00,,,0.00,21.00,VWS V14.01,2013-05-08 12:57:00,
2013-05-08 08:58:00,47.9,47.9,29.75,North,0,0.0,0.0,100,0.00,,,0.00,21.00,VWS V14.01,2013-05-08 12:58:00,
2013-05-08 08:59:00,47.9,47.9,29.75,North,0,0.0,0.0,100,0.00,,,0.00,19.00,VWS V14.01,2013-05-08 12:59:00,
2013-05-08 09:00:00,48.0,48.0,29.75,North,0,0.0,0.0,100,0.00,,,0.00,21.00,VWS V14.01,2013-05-08 13:00:00,
2013-05-08 09:01:00,48.0,48.0,29.75,North,0,0.0,0.0,100,0.00,,,0.00,25.00,VWS V14.01,2013-05-08 13:01:00,
2013-05-08 09:02:00,48.0,48.0,29.75,North,0,0.0,0.0,100,0.00,,,0.00,25.00,VWS V14.01,2013-05-08 13:02:00,
2013-05-08 09:03:00,48.0,48.0,29.75,North,0,0.0,0.0,100,0.00,,,0.00,25.00,VWS V14.01,2013-05-08 13:03:00,
2013-05-08 09:04:00,47.9,47.9,29.75,North,0,0.0,0.0,100,0.00,,,0.00,21.00,VWS V14.01,2013-05-08 13:04:00,
2013-05-08 09:05:00,48.0,48.0,29.75,North,6,0.0,0.0,100,0.00,,,0.00,30.00,VWS V14.01,2013-05-08 13:05:00,
2013-05-08 09:06:00,48.0,48.0,29.75,NNE,18,0.0,0.0,100,0.00,,,0.00,30.00,VWS V14.01,2013-05-08 13:06:00,
2013-05-08 09:07:00,48.0,48.0,29.75,NNE,18,0.0,0.0,100,0.00,,,0.00,30.00,VWS V14.01,2013-05-08 13:07:00,
2013-05-08 09:08:00,48.0,48.0,29.75,NNE,18,0.0,0.0,100,0.00,,,0.00,30.00,VWS V14.01,2013-05-08 13:08:00,
2013-05-08 09:09:00,48.0,48.0,29.75,North,0,0.0,0.0,100,0.00,,,0.00,25.00,VWS V14.01,2013-05-08 13:09:00,
2013-05-08 09:10:00,48.2,48.2,29.75,North,1,0.0,0.0,100,0.00,,,0.00,33.00,VWS V14.01,2013-05-08 13:10:00,
2013-05-08 09:11:00,48.2,48.2,29.75,North,1,0.0,0.0,100,0.00,,,0.00,33.00,VWS V14.01,2013-05-08 13:11:00,
2013-05-08 09:12:00,48.2,48.2,29.75,North,4,0.0,0.0,100,0.00,,,0.00,33.00,VWS V14.01,2013-05-08 13:12:00,
2013-05-08 09:13:00,48.2,48.2,29.75,North,6,0.0,0.0,100,0.00,,,0.00,39.00,VWS V14.01,2013-05-08 13:13:00,
2013-05-08 09:14:00,48.2,48.2,29.75,North,6,0.0,0.0,100,0.00,,,0.00,39.00,VWS V14.01,2013-05-08 13:14:00,
2013-05-08 09:15:00,48.2,48.2,29.75,North,1,0.0,0.0,100,0.00,,,0.00,33.00,VWS V14.01,2013-05-08 13:15:00,
2013-05-08 09:16:00,48.2,48.2,29.75,North,4,0.0,0.0,100,0.00,,,0.00,39.00,VWS V14.01,2013-05-08 13:16:00,
2013-05-08 09:17:00,48.2,48.2,29.75,North,6,0.0,0.0,100,0.00,,,0.00,39.00,VWS V14.01,2013-05-08 13:17:00,
2013-05-08 09:18:00,48.2,48.2,29.75,North,6,0.0,0.0,100,0.00,,,0.00,32.00,VWS V14.01,2013-05-08 13:18:00,
2013-05-08 09:19:00,48.2,48.2,29.75,North,6,0.0,0.0,100,0.00,,,0.00,32.00,VWS V14.01,2013-05-08 13:19:00,
2013-05-08 09:20:00,48.2,48.2,29.75,North,6,0.0,0.0,100,0.00,,,0.00,32.00,VWS V14.01,2013-05-08 13:20:00,
2013-05-08 09:21:00,48.2,48.2,29.75,North,4,0.0,0.0,100,0.00,,,0.00,39.00,VWS V14.01,2013-05-08 13:21:00,
2013-05-08 09:22:00,48.2,48.2,29.75,North,6,0.0,0.0,100,0.00,,,0.00,32.00,VWS V14.01,2013-05-08 13:22:00,
2013-05-08 09:23:00,48.3,48.3,29.75,North,6,0.0,0.0,100,0.00,,,0.00,35.00,VWS V14.01,2013-05-08 13:23:00,
2013-05-08 09:24:00,48.3,48.3,29.75,NNE,24,0.0,0.0,100,0.00,,,0.00,35.00,VWS V14.01,2013-05-08 13:24:00,
2013-05-08 09:25:00,48.3,48.3,29.75,North,3,0.0,0.0,100,0.00,,,0.00,35.00,VWS V14.01,2013-05-08 13:25:00,
2013-05-08 09:26:00,48.2,48.2,29.75,North,6,0.0,0.0,100,0.00,,,0.00,32.00,VWS V14.01,2013-05-08 13:26:00,
2013-05-08 09:27:00,48.3,48.3,29.75,ENE,58,0.0,0.0,100,0.00,,,0.00,48.00,VWS V14.01,2013-05-08 13:27:00,
2013-05-08 09:28:00,48.3,48.3,29.75,NE,48,0.0,0.0,100,0.00,,,0.00,48.00,VWS V14.01,2013-05-08 13:28:00,
2013-05-08 09:29:00,48.3,48.3,29.75,NE,38,0.0,0.0,100,0.00,,,0.00,48.00,VWS V14.01,2013-05-08 13:29:00,
2013-05-08 09:30:00,48.3,48.3,29.75,NE,54,0.0,0.0,100,0.00,,,0.00,62.00,VWS V14.01,2013-05-08 13:30:00,
2013-05-08 09:31:00,48.3,48.3,29.75,North,359,0.0,0.0,100,0.00,,,0.00,48.00,VWS V14.01,2013-05-08 13:31:00,
2013-05-08 09:32:00,48.3,48.3,29.75,NNE,30,0.0,0.0,100,0.00,,,0.00,70.00,VWS V14.01,2013-05-08 13:32:00,
2013-05-08 09:33:00,48.3,48.3,29.75,NNE,28,0.0,0.0,100,0.00,,,0.00,67.00,VWS V14.01,2013-05-08 13:33:00,
2013-05-08 09:34:00,48.5,48.5,29.75,NNE,17,0.0,0.0,100,0.00,,,0.00,65.00,VWS V14.01,2013-05-08 13:34:00,
2013-05-08 09:35:00,48.5,48.5,29.75,NNE,21,0.0,0.0,100,0.00,,,0.00,62.00,VWS V14.01,2013-05-08 13:35:00,
2013-05-08 09:36:00,48.3,48.3,29.75,NE,54,0.0,0.0,100,0.00,,,0.00,69.00,VWS V14.01,2013-05-08 13:36:00,
2013-05-08 09:37:00,48.5,48.5,29.75,NE,51,0.0,0.0,100,0.00,,,0.00,60.00,VWS V14.01,2013-05-08 13:37:00,
2013-05-08 09:38:00,48.5,48.5,29.75,North,350,0.0,0.0,100,0.00,,,0.00,53.00,VWS V14.01,2013-05-08 13:38:00,
2013-05-08 09:39:00,48.5,48.5,29.75,NNE,23,0.0,0.0,100,0.00,,,0.00,51.00,VWS V14.01,2013-05-08 13:39:00,
2013-05-08 09:40:00,48.5,48.5,29.75,NE,45,0.0,0.0,100,0.00,,,0.00,51.00,VWS V14.01,2013-05-08 13:40:00,
2013-05-08 09:41:00,48.5,48.5,29.75,NE,35,0.0,0.0,100,0.00,,,0.00,53.00,VWS V14.01,2013-05-08 13:41:00,
2013-05-08 09:42:00,48.5,48.5,29.75,NE,51,0.0,0.0,100,0.00,,,0.00,60.00,VWS V14.01,2013-05-08 13:42:00,
2013-05-08 09:43:00,48.3,48.3,29.75,North,0,0.0,0.0,100,0.00,,,0.00,55.00,VWS V14.01,2013-05-08 13:43:00,
2013-05-08 09:44:00,48.3,48.3,29.75,North,4,0.0,0.0,100,0.00,,,0.00,51.00,VWS V14.01,2013-05-08 13:44:00,
2013-05-08 09:45:00,48.3,48.3,29.75,NNE,13,0.0,0.0,100,0.00,,,0.00,49.00,VWS V14.01,2013-05-08 13:45:00,
2013-05-08 09:46:00,48.3,48.3,29.75,NNE,13,0.0,0.0,100,0.00,,,0.00,48.00,VWS V14.01,2013-05-08 13:46:00,
2013-05-08 09:47:00,48.5,48.5,29.75,NE,37,0.0,0.0,100,0.00,,,0.00,53.00,VWS V14.01,2013-05-08 13:47:00,
2013-05-08 09:48:00,48.5,48.5,29.75,NNE,13,0.0,0.0,100,0.00,,,0.00,48.00,VWS V14.01,2013-05-08 13:48:00,
2013-05-08 09:49:00,48.5,48.5,29.75,NNE,13,0.0,0.0,100,0.00,,,0.00,48.00,VWS V14.01,2013-05-08 13:49:00,
2013-05-08 09:50:00,48.5,48.5,29.75,NNE,13,0.0,0.0,100,0.00,,,0.00,48.00,VWS V14.01,2013-05-08 13:50:00,
2013-05-08 09:51:00,48.5,48.5,29.75,NNE,13,0.0,0.0,100,0.00,,,0.00,48.00,VWS V14.01,2013-05-08 13:51:00,
2013-05-08 09:52:00,48.5,48.5,29.75,NNE,13,0.0,0.0,100,0.00,,,0.00,48.00,VWS V14.01,2013-05-08 13:52:00,
2013-05-08 09:53:00,48.5,48.5,29.75,NNE,13,0.0,0.0,100,0.00,,,0.00,48.00,VWS V14.01,2013-05-08 13:53:00,
2013-05-08 09:54:00,48.5,48.5,29.75,NNE,13,0.0,0.0,100,0.00,,,0.00,40.00,VWS V14.01,2013-05-08 13:54:00,
2013-05-08 09:55:00,48.5,48.5,29.75,NNE,13,0.0,0.0,100,0.00,,,0.00,40.00,VWS V14.01,2013-05-08 13:55:00,
2013-05-08 09:56:00,48.5,48.5,29.75,NNE,24,0.0,0.0,100,0.00,,,0.00,40.00,VWS V14.01,2013-05-08 13:56:00,
2013-05-08 09:57:00,48.5,48.5,29.75,NNE,16,0.0,0.0,100,0.00,,,0.00,40.00,VWS V14.01,2013-05-08 13:57:00,
2013-05-08 09:58:00,48.5,48.5,29.75,NNE,13,0.0,0.0,100,0.00,,,0.00,48.00,VWS V14.01,2013-05-08 13:58:00,
2013-05-08 09:59:00,48.5,48.5,29.75,NNE,30,0.0,0.0,100,0.00,,,0.00,88.00,VWS V14.01,2013-05-08 13:59:00,
2013-05-08 10:00:00,48.5,48.5,29.75,NNE,23,0.0,0.0,100,0.00,,,0.00,93.00,VWS V14.01,2013-05-08 14:00:00,
2013-05-08 10:01:00,48.5,48.5,29.75,NE,40,0.0,0.0,100,0.00,,,0.00,100.00,VWS V14.01,2013-05-08 14:01:00,
2013-05-08 10:02:00,48.5,48.5,29.75,NE,44,0.0,0.0,100,0.00,,,0.00,106.00,VWS V14.01,2013-05-08 14:02:00,
2013-05-08 10:03:00,48.5,48.5,29.75,NNE,23,0.0,0.0,100,0.00,,,0.00,114.00,VWS V14.01,2013-05-08 14:03:00,
2013-05-08 10:04:00,48.5,48.5,29.75,NNE,30,0.0,0.0,100,0.00,,,0.00,88.00,VWS V14.01,2013-05-08 14:04:00,
2013-05-08 10:05:00,48.5,48.5,29.75,NNE,23,0.0,0.0,100,0.00,,,0.00,111.00,VWS V14.01,2013-05-08 14:05:00,
2013-05-08 10:06:00,48.5,48.5,29.75,NE,35,0.0,0.0,100,0.00,,,0.00,106.00,VWS V14.01,2013-05-08 14:06:00,
2013-05-08 10:07:00,48.5,48.5,29.75,North,8,0.0,0.0,100,0.00,,,0.00,99.00,VWS V14.01,2013-05-08 14:07:00,
2013-05-08 10:08:00,48.5,48.5,29.75,North,8,0.0,0.0,100,0.00,,,0.00,91.00,VWS V14.01,2013-05-08 14:08:00,
2013-05-08 10:09:00,48.5,48.5,29.75,NNE,23,0.0,0.0,100,0.00,,,0.00,113.00,VWS V14.01,2013-05-08 14:09:00,
2013-05-08 10:10:00,48.6,48.6,29.75,NE,54,0.0,0.0,100,0.00,,,0.00,90.00,VWS V14.01,2013-05-08 14:10:00,
2013-05-08 10:11:00,48.6,48.6,29.75,NE,52,0.0,0.0,100,0.00,,,0.00,90.00,VWS V14.01,2013-05-08 14:11:00,
2013-05-08 10:12:00,48.6,48.6,29.75,NE,55,0.0,0.0,100,0.00,,,0.00,90.00,VWS V14.01,2013-05-08 14:12:00,
2013-05-08 10:13:00,48.6,48.6,29.75,North,8,0.0,0.0,100,0.00,,,0.00,84.00,VWS V14.01,2013-05-08 14:13:00,
2013-05-08 10:14:00,48.5,48.5,29.75,North,11,0.0,0.0,100,0.00,,,0.00,90.00,VWS V14.01,2013-05-08 14:14:00,
2013-05-08 10:15:00,48.6,48.6,29.75,ENE,66,0.0,0.0,100,0.00,,,0.00,81.00,VWS V14.01,2013-05-08 14:15:00,
2013-05-08 10:16:00,48.6,48.6,29.75,NNE,21,0.0,0.0,100,0.00,,,0.00,83.00,VWS V14.01,2013-05-08 14:16:00,
2013-05-08 10:17:00,48.6,48.6,29.75,NE,40,0.0,0.0,100,0.00,,,0.00,84.00,VWS V14.01,2013-05-08 14:17:00,
2013-05-08 10:18:00,48.6,48.6,29.75,NNE,20,0.0,0.0,100,0.00,,,0.00,86.00,VWS V14.01,2013-05-08 14:18:00,
2013-05-08 10:19:00,48.6,48.6,29.75,North,7,0.0,0.0,100,0.00,,,0.00,83.00,VWS V14.01,2013-05-08 14:19:00,
2013-05-08 10:20:00,48.6,48.6,29.75,NNE,16,0.0,0.0,100,0.00,,,0.00,84.00,VWS V14.01,2013-05-08 14:20:00,
2013-05-08 10:21:00,48.8,48.8,29.75,NNE,16,0.0,0.0,100,0.00,,,0.00,84.00,VWS V14.01,2013-05-08 14:21:00,
2013-05-08 10:22:00,48.8,48.8,29.75,North,352,0.0,0.0,100,0.00,,,0.00,83.00,VWS V14.01,2013-05-08 14:22:00,
2013-05-08 10:23:00,48.8,48.8,29.75,North,357,0.0,0.0,100,0.00,,,0.00,84.00,VWS V14.01,2013-05-08 14:23:00,
2013-05-08 10:24:00,48.6,48.6,29.75,NNE,16,0.0,0.0,100,0.00,,,0.00,86.00,VWS V14.01,2013-05-08 14:24:00,
2013-05-08 10:25:00,48.8,48.8,29.75,NNE,17,0.0,0.0,100,0.00,,,0.00,88.00,VWS V14.01,2013-05-08 14:25:00,
2013-05-08 10:26:00,48.8,48.8,29.75,NNE,17,0.0,0.0,100,0.00,,,0.00,88.00,VWS V14.01,2013-05-08 14:26:00,
2013-05-08 10:27:00,48.8,48.8,29.75,North,0,0.0,0.0,100,0.00,,,0.00,88.00,VWS V14.01,2013-05-08 14:27:00,
2013-05-08 10:28:00,48.8,48.8,29.75,NNE,25,0.0,0.0,100,0.00,,,0.00,91.00,VWS V14.01,2013-05-08 14:28:00,
2013-05-08 10:29:00,48.8,48.8,29.75,NE,35,0.0,0.0,100,0.00,,,0.00,95.00,VWS V14.01,2013-05-08 14:29:00,
2013-05-08 10:30:00,48.8,48.8,29.75,NNE,17,0.0,0.0,100,0.00,,,0.00,88.00,VWS V14.01,2013-05-08 14:30:00,
2013-05-08 10:31:00,48.8,48.8,29.75,North,359,0.0,0.0,100,0.00,,,0.00,99.00,VWS V14.01,2013-05-08 14:31:00,
2013-05-08 10:32:00,48.8,48.8,29.75,North,7,0.0,0.0,100,0.00,,,0.00,99.00,VWS V14.01,2013-05-08 14:32:00,
2013-05-08 10:33:00,48.8,48.8,29.75,NNW,330,0.0,0.0,100,0.00,,,0.00,104.00,VWS V14.01,2013-05-08 14:33:00,
2013-05-08 10:34:00,48.8,48.8,29.75,North,0,0.0,0.0,100,0.00,,,0.00,106.00,VWS V14.01,2013-05-08 14:34:00,
2013-05-08 10:35:00,48.8,48.8,29.75,NE,35,0.0,0.0,100,0.00,,,0.00,97.00,VWS V14.01,2013-05-08 14:35:00,
2013-05-08 10:36:00,48.8,48.8,29.75,North,4,0.0,0.0,100,0.00,,,0.00,107.00,VWS V14.01,2013-05-08 14:36:00,
2013-05-08 10:37:00,48.8,48.8,29.75,North,352,0.0,0.0,100,0.00,,,0.00,106.00,VWS V14.01,2013-05-08 14:37:00,
2013-05-08 10:38:00,48.8,48.8,29.75,NNE,25,0.0,0.0,100,0.00,,,0.00,102.00,VWS V14.01,2013-05-08 14:38:00,
2013-05-08 10:39:00,48.8,48.8,29.75,NNE,18,0.0,0.0,100,0.00,,,0.00,99.00,VWS V14.01,2013-05-08 14:39:00,
2013-05-08 10:40:00,48.8,48.8,29.75,NNE,30,0.0,0.0,100,0.00,,,0.00,95.00,VWS V14.01,2013-05-08 14:40:00,
2013-05-08 10:41:00,48.8,48.8,29.75,North,4,0.0,0.0,100,0.00,,,0.00,107.00,VWS V14.01,2013-05-08 14:41:00,
2013-05-08 10:42:00,48.8,48.8,29.75,NE,48,0.0,0.0,100,0.00,,,0.00,95.00,VWS V14.01,2013-05-08 14:42:00,
2013-05-08 10:43:00,48.8,48.8,29.75,North,3,0.0,0.0,100,0.00,,,0.00,100.00,VWS V14.01,2013-05-08 14:43:00,
2013-05-08 10:44:00,48.8,48.8,29.75,NNE,25,0.0,0.0,100,0.00,,,0.00,111.00,VWS V14.01,2013-05-08 14:44:00,
2013-05-08 10:45:00,48.8,48.8,29.75,NNE,17,0.0,0.0,100,0.00,,,0.00,113.00,VWS V14.01,2013-05-08 14:45:00,
2013-05-08 10:46:00,48.8,48.8,29.75,NNE,31,0.0,0.0,100,0.00,,,0.00,95.00,VWS V14.01,2013-05-08 14:46:00,
2013-05-08 10:47:00,48.8,48.8,29.75,NNW,347,0.0,0.0,100,0.00,,,0.00,104.00,VWS V14.01,2013-05-08 14:47:00,
2013-05-08 10:48:00,48.8,48.8,29.75,East,79,0.0,0.0,100,0.00,,,0.00,88.00,VWS V14.01,2013-05-08 14:48:00,
2013-05-08 10:49:00,48.8,48.8,29.75,ENE,73,0.0,0.0,100,0.00,,,0.00,81.00,VWS V14.01,2013-05-08 14:49:00,
2013-05-08 10:50:00,48.8,48.8,29.75,ENE,75,0.0,0.0,100,0.00,,,0.00,81.00,VWS V14.01,2013-05-08 14:50:00,
2013-05-08 10:51:00,48.8,48.8,29.75,ENE,75,0.0,0.0,100,0.00,,,0.00,79.00,VWS V14.01,2013-05-08 14:51:00,
2013-05-08 10:52:00,48.8,48.8,29.75,NNW,347,0.0,0.0,100,0.00,,,0.00,104.00,VWS V14.01,2013-05-08 14:52:00,
2013-05-08 10:53:00,48.9,48.9,29.75,ENE,75,0.0,0.0,100,0.00,,,0.00,77.00,VWS V14.01,2013-05-08 14:53:00,
2013-05-08 10:54:00,48.9,48.9,29.75,ENE,75,0.0,0.0,100,0.00,,,0.00,81.00,VWS V14.01,2013-05-08 14:54:00,
2013-05-08 10:55:00,48.9,48.9,29.75,ENE,75,0.0,0.0,100,0.00,,,0.00,84.00,VWS V14.01,2013-05-08 14:55:00,
2013-05-08 10:56:00,48.9,48.9,29.75,ENE,58,0.0,0.0,100,0.00,,,0.00,83.00,VWS V14.01,2013-05-08 14:56:00,
2013-05-08 10:57:00,48.9,48.9,29.75,ENE,58,0.0,0.0,100,0.00,,,0.00,77.00,VWS V14.01,2013-05-08 14:57:00,
2013-05-08 10:58:00,48.9,48.9,29.75,ENE,75,0.0,0.0,100,0.00,,,0.00,77.00,VWS V14.01,2013-05-08 14:58:00,
2013-05-08 10:59:00,48.9,48.9,29.75,ENE,58,0.0,0.0,100,0.00,,,0.00,72.00,VWS V14.01,2013-05-08 14:59:00,
2013-05-08 11:00:00,48.9,48.9,29.75,NE,56,0.0,0.0,100,0.00,,,0.00,70.00,VWS V14.01,2013-05-08 15:00:00,
2013-05-08 11:01:00,48.9,48.9,29.75,ENE,58,0.0,0.0,100,0.00,,,0.00,70.00,VWS V14.01,2013-05-08 15:01:00,
2013-05-08 11:02:00,48.9,48.9,29.75,ENE,58,0.0,0.0,100,0.00,,,0.00,70.00,VWS V14.01,2013-05-08 15:02:00,
2013-05-08 11:03:00,48.9,48.9,29.75,ENE,58,0.0,0.0,100,0.00,,,0.00,74.00,VWS V14.01,2013-05-08 15:03:00,
2013-05-08 11:04:00,48.9,48.9,29.75,North,0,0.0,0.0,100,0.00,,,0.00,100.00,VWS V14.01,2013-05-08 15:04:00,
2013-05-08 11:05:00,48.8,48.8,29.75,North,0,0.0,0.0,100,0.00,,,0.00,104.00,VWS V14.01,2013-05-08 15:05:00,
2013-05-08 11:06:00,48.8,48.8,29.75,North,7,0.0,0.0,100,0.00,,,0.00,104.00,VWS V14.01,2013-05-08 15:06:00,
2013-05-08 11:07:00,48.8,48.8,29.75,NE,34,0.0,0.0,100,0.00,,,0.00,104.00,VWS V14.01,2013-05-08 15:07:00,
2013-05-08 11:08:00,48.8,48.8,29.75,NE,34,0.0,0.0,100,0.00,,,0.00,106.00,VWS V14.01,2013-05-08 15:08:00,
2013-05-08 11:09:00,48.9,48.9,29.75,North,0,0.0,0.0,100,0.00,,,0.00,100.00,VWS V14.01,2013-05-08 15:09:00,
2013-05-08 11:10:00,48.8,48.8,29.75,North,356,0.0,0.0,100,0.00,,,0.00,116.00,VWS V14.01,2013-05-08 15:10:00,
2013-05-08 11:11:00,48.9,48.9,29.75,NNE,28,0.0,0.0,100,0.00,,,0.00,118.00,VWS V14.01,2013-05-08 15:11:00,
2013-05-08 11:12:00,48.9,48.9,29.75,NNE,20,0.0,0.0,100,0.00,,,0.00,120.00,VWS V14.01,2013-05-08 15:12:00,
2013-05-08 11:13:00,48.9,48.9,29.75,North,11,0.0,0.0,100,0.00,,,0.00,121.00,VWS V14.01,2013-05-08 15:13:00,
2013-05-08 11:14:00,48.8,48.8,29.75,North,356,0.0,0.0,100,0.00,,,0.00,114.00,VWS V14.01,2013-05-08 15:14:00,
2013-05-08 11:15:00,48.9,48.9,29.75,North,0,0.0,0.0,100,0.00,,,0.00,128.00,VWS V14.01,2013-05-08 15:15:00,
2013-05-08 11:16:00,48.9,48.9,29.75,NNE,14,0.0,0.0,100,0.00,,,0.00,125.00,VWS V14.01,2013-05-08 15:16:00,
2013-05-08 11:17:00,48.9,48.9,29.75,North,0,0.0,0.0,100,0.00,,,0.00,121.00,VWS V14.01,2013-05-08 15:17:00,
2013-05-08 11:18:00,48.9,48.9,29.75,North,0,0.0,0.0,100,0.00,,,0.00,118.00,VWS V14.01,2013-05-08 15:18:00,
2013-05-08 11:19:00,48.9,48.9,29.75,North,3,0.0,0.0,100,0.00,,,0.00,127.00,VWS V14.01,2013-05-08 15:19:00,
2013-05-08 11:20:00,48.9,48.9,29.75,NE,44,0.0,0.0,100,0.00,,,0.00,123.00,VWS V14.01,2013-05-08 15:20:00,
2013-05-08 11:21:00,49.1,49.1,29.75,NE,44,0.0,0.0,100,0.00,,,0.00,130.00,VWS V14.01,2013-05-08 15:21:00,
2013-05-08 11:22:00,49.1,49.1,29.75,NNE,28,0.0,0.0,100,0.00,,,0.00,144.00,VWS V14.01,2013-05-08 15:22:00,
2013-05-08 11:23:00,49.1,49.1,29.75,NNE,25,0.0,0.0,100,0.00,,,0.00,176.00,VWS V14.01,2013-05-08 15:23:00,
2013-05-08 11:24:00,48.9,48.9,29.75,North,6,0.0,0.0,100,0.00,,,0.00,120.00,VWS V14.01,2013-05-08 15:24:00,
2013-05-08 11:25:00,49.1,49.1,29.75,NNE,28,0.0,0.0,100,0.00,,,0.00,187.00,VWS V14.01,2013-05-08 15:25:00,
2013-05-08 11:26:00,49.1,49.1,29.75,NNE,25,0.0,0.0,100,0.00,,,0.00,174.00,VWS V14.01,2013-05-08 15:26:00,
2013-05-08 11:27:00,49.1,49.1,29.75,ENE,58,0.0,0.0,100,0.00,,,0.00,158.00,VWS V14.01,2013-05-08 15:27:00,
2013-05-08 11:28:00,49.1,49.1,29.75,NNE,30,0.0,0.0,100,0.00,,,0.00,158.00,VWS V14.01,2013-05-08 15:28:00,
2013-05-08 11:29:00,49.1,49.1,29.75,ENE,59,0.0,0.0,100,0.00,,,0.00,144.00,VWS V14.01,2013-05-08 15:29:00,
2013-05-08 11:30:00,49.1,49.1,29.75,NNE,28,0.0,0.0,100,0.00,,,0.00,187.00,VWS V14.01,2013-05-08 15:30:00,
2013-05-08 11:31:00,49.1,49.1,29.75,North,11,0.0,0.0,100,0.00,,,0.00,141.00,VWS V14.01,2013-05-08 15:31:00,
2013-05-08 11:32:00,49.1,49.1,29.75,NNE,31,0.0,0.0,100,0.00,,,0.00,135.00,VWS V14.01,2013-05-08 15:32:00,
2013-05-08 11:33:00,49.1,49.1,29.75,NNE,31,0.0,0.0,100,0.00,,,0.00,127.00,VWS V14.01,2013-05-08 15:33:00,
2013-05-08 11:34:00,49.1,49.1,29.75,NNE,23,0.0,0.0,100,0.00,,,0.00,120.00,VWS V14.01,2013-05-08 15:34:00,
2013-05-08 11:35:00,49.1,49.1,29.75,NE,51,0.0,0.0,100,0.00,,,0.00,143.00,VWS V14.01,2013-05-08 15:35:00,
2013-05-08 11:36:00,49.1,49.1,29.75,North,0,0.0,0.0,100,0.00,,,0.00,113.00,VWS V14.01,2013-05-08 15:36:00,
2013-05-08 11:37:00,49.1,49.1,29.75,NNE,17,0.0,0.0,100,0.00,,,0.00,111.00,VWS V14.01,2013-05-08 15:37:00,
2013-05-08 11:38:00,49.1,49.1,29.75,NNE,24,0.0,0.0,100,0.00,,,0.00,109.00,VWS V14.01,2013-05-08 15:38:00,
2013-05-08 11:39:00,49.1,49.1,29.75,NNE,24,0.0,0.0,100,0.00,,,0.00,114.00,VWS V14.01,2013-05-08 15:39:00,
2013-05-08 11:40:00,49.1,49.1,29.75,North,0,0.0,0.0,100,0.00,,,0.00,113.00,VWS V14.01,2013-05-08 15:40:00,
2013-05-08 11:41:00,49.1,49.1,29.75,NNE,17,0.0,0.0,100,0.00,,,0.00,125.00,VWS V14.01,2013-05-08 15:41:00,
2013-05-08 11:42:00,49.1,49.1,29.75,NNE,17,0.0,0.0,100,0.00,,,0.00,128.00,VWS V14.01,2013-05-08 15:42:00,
2013-05-08 11:43:00,49.2,49.2,29.75,NNE,21,0.0,0.0,100,0.00,,,0.00,135.00,VWS V14.01,2013-05-08 15:43:00,
2013-05-08 11:44:00,49.2,49.2,29.75,NNE,27,0.0,0.0,100,0.00,,,0.00,135.00,VWS V14.01,2013-05-08 15:44:00,
2013-05-08 11:45:00,49.1,49.1,29.75,NNE,20,0.0,0.0,100,0.00,,,0.00,120.00,VWS V14.01,2013-05-08 15:45:00,
2013-05-08 11:46:00,49.1,49.1,29.75,NNE,21,0.0,0.0,100,0.00,,,0.00,128.00,VWS V14.01,2013-05-08 15:46:00,
2013-05-08 11:47:00,49.1,49.1,29.75,NE,38,0.0,0.0,100,0.00,,,0.00,127.00,VWS V14.01,2013-05-08 15:47:00,
2013-05-08 11:48:00,49.1,49.1,29.75,NE,42,0.0,0.0,100,0.00,,,0.00,125.00,VWS V14.01,2013-05-08 15:48:00,
2013-05-08 11:49:00,49.1,49.1,29.75,NE,42,0.0,0.0,100,0.00,,,0.00,127.00,VWS V14.01,2013-05-08 15:49:00,
2013-05-08 11:50:00,49.2,49.2,29.75,NNE,21,0.0,0.0,100,0.00,,,0.00,130.00,VWS V14.01,2013-05-08 15:50:00,
2013-05-08 11:51:00,49.1,49.1,29.75,North,353,0.0,0.0,100,0.00,,,0.00,114.00,VWS V14.01,2013-05-08 15:51:00,
2013-05-08 11:52:00,49.2,49.2,29.75,North,353,0.0,0.0,100,0.00,,,0.00,109.00,VWS V14.01,2013-05-08 15:52:00,
2013-05-08 11:53:00,49.2,49.2,29.75,NE,38,0.0,0.0,100,0.00,,,0.00,111.00,VWS V14.01,2013-05-08 15:53:00,
2013-05-08 11:54:00,49.2,49.2,29.75,NE,44,0.0,0.0,100,0.00,,,0.00,114.00,VWS V14.01,2013-05-08 15:54:00,
2013-05-08 11:55:00,49.2,49.2,29.75,North,0,0.0,0.0,100,0.00,,,0.00,118.00,VWS V14.01,2013-05-08 15:55:00,
2013-05-08 11:56:00,49.1,49.1,29.75,North,353,0.0,0.0,100,0.00,,,0.00,114.00,VWS V14.01,2013-05-08 15:56:00,
2013-05-08 11:57:00,49.2,49.2,29.75,NNE,20,0.0,0.0,100,0.00,,,0.00,123.00,VWS V14.01,2013-05-08 15:57:00,
2013-05-08 11:58:00,49.2,49.2,29.75,NNE,30,0.0,0.0,100,0.00,,,0.00,116.00,VWS V14.01,2013-05-08 15:58:00,
2013-05-08 11:59:00,49.1,49.1,29.75,North,349,0.0,0.0,100,0.00,,,0.00,100.00,VWS V14.01,2013-05-08 15:59:00,
2013-05-08 12:00:00,49.1,49.1,29.75,North,349,0.0,0.0,100,0.00,,,0.00,93.00,VWS V14.01,2013-05-08 16:00:00,
2013-05-08 12:01:00,49.1,49.1,29.75,North,349,0.0,0.0,100,0.00,,,0.00,95.00,VWS V14.01,2013-05-08 16:01:00,
2013-05-08 12:02:00,49.2,49.2,29.75,NNE,20,0.0,0.0,100,0.00,,,0.00,123.00,VWS V14.01,2013-05-08 16:02:00,
2013-05-08 12:03:00,49.2,49.2,29.75,North,0,0.0,0.0,100,0.00,,,0.00,109.00,VWS V14.01,2013-05-08 16:03:00,
2013-05-08 12:04:00,49.2,49.2,29.75,NNE,14,0.0,0.0,100,0.00,,,0.00,116.00,VWS V14.01,2013-05-08 16:04:00,
2013-05-08 12:05:00,49.2,49.2,29.75,NNE,14,0.0,0.0,100,0.00,,,0.00,113.00,VWS V14.01,2013-05-08 16:05:00,
2013-05-08 12:06:00,49.4,49.4,29.75,NNE,14,0.0,0.0,100,0.00,,,0.00,109.00,VWS V14.01,2013-05-08 16:06:00,
2013-05-08 12:07:00,49.2,49.2,29.75,North,349,0.0,0.0,100,0.00,,,0.00,102.00,VWS V14.01,2013-05-08 16:07:00,
2013-05-08 12:08:00,49.4,49.4,29.75,North,359,0.0,0.0,100,0.00,,,0.00,106.00,VWS V14.01,2013-05-08 16:08:00,
2013-05-08 12:09:00,49.4,49.4,29.75,North,8,0.0,0.0,100,0.00,,,0.00,118.00,VWS V14.01,2013-05-08 16:09:00,
2013-05-08 12:10:00,49.4,49.4,29.75,North,356,0.0,0.0,100,0.00,,,0.00,128.00,VWS V14.01,2013-05-08 16:10:00,
2013-05-08 12:11:00,49.4,49.4,29.75,NNE,23,0.0,0.0,100,0.00,,,0.00,130.00,VWS V14.01,2013-05-08 16:11:00,
2013-05-08 12:12:00,49.4,49.4,29.75,North,8,0.0,0.0,100,0.00,,,0.00,106.00,VWS V14.01,2013-05-08 16:12:00,
2013-05-08 12:13:00,49.4,49.4,29.75,NNE,23,0.0,0.0,100,0.00,,,0.00,135.00,VWS V14.01,2013-05-08 16:13:00,
2013-05-08 12:14:00,49.4,49.4,29.75,NE,42,0.0,0.0,100,0.00,,,0.00,137.00,VWS V14.01,2013-05-08 16:14:00,
2013-05-08 12:15:00,49.4,49.4,29.75,North,0,0.0,0.0,100,0.00,,,0.00,135.00,VWS V14.01,2013-05-08 16:15:00,
2013-05-08 12:16:00,49.4,49.4,29.75,NNE,20,0.0,0.0,100,0.00,,,0.00,132.00,VWS V14.01,2013-05-08 16:16:00,
2013-05-08 12:17:00,49.4,49.4,29.75,NW,325,0.0,0.0,100,0.00,,,0.00,132.00,VWS V14.01,2013-05-08 16:17:00,
2013-05-08 12:18:00,49.4,49.4,29.75,North,356,0.0,0.0,100,0.00,,,0.00,121.00,VWS V14.01,2013-05-08 16:18:00,
2013-05-08 12:19:00,49.4,49.4,29.75,NNW,340,0.0,0.0,100,0.00,,,0.00,120.00,VWS V14.01,2013-05-08 16:19:00,
2013-05-08 12:20:00,49.4,49.4,29.75,North,357,0.0,0.0,100,0.00,,,0.00,121.00,VWS V14.01,2013-05-08 16:20:00,
2013-05-08 12:21:00,49.4,49.4,29.75,North,10,0.0,0.0,100,0.00,,,0.00,121.00,VWS V14.01,2013-05-08 16:21:00,
2013-05-08 12:22:00,49.4,49.4,29.75,NNE,20,0.0,0.0,100,0.00,,,0.00,125.00,VWS V14.01,2013-05-08 16:22:00,
2013-05-08 12:23:00,49.4,49.4,29.75,NNE,18,0.0,0.0,100,0.00,,,0.00,114.00,VWS V14.01,2013-05-08 16:23:00,
2013-05-08 12:24:00,49.4,49.4,29.75,NNE,32,0.0,0.0,100,0.00,,,0.00,121.00,VWS V14.01,2013-05-08 16:24:00,
2013-05-08 12:25:00,49.4,49.4,29.75,NNE,17,0.0,0.0,100,0.00,,,0.00,121.00,VWS V14.01,2013-05-08 16:25:00,
2013-05-08 12:26:00,49.4,49.4,29.75,North,11,0.0,0.0,100,0.00,,,0.00,121.00,VWS V14.01,2013-05-08 16:26:00,
2013-05-08 12:27:00,49.4,49.4,29.75,North,10,0.0,0.0,100,0.00,,,0.00,121.00,VWS V14.01,2013-05-08 16:27:00,
2013-05-08 12:28:00,49.4,49.4,29.75,NNE,18,0.0,0.0,100,0.00,,,0.00,114.00,VWS V14.01,2013-05-08 16:28:00,
2013-05-08 12:29:00,49.4,49.4,29.75,North,3,0.0,0.0,100,0.00,,,0.00,121.00,VWS V14.01,2013-05-08 16:29:00,
2013-05-08 12:30:00,49.2,49.2,29.75,North,4,0.0,0.0,100,0.00,,,0.00,121.00,VWS V14.01,2013-05-08 16:30:00,
2013-05-08 12:31:00,49.2,49.2,29.75,North,0,0.0,0.0,100,0.00,,,0.00,121.00,VWS V14.01,2013-05-08 16:31:00,
2013-05-08 12:32:00,49.2,49.2,29.75,NNE,28,0.0,0.0,100,0.00,,,0.00,121.00,VWS V14.01,2013-05-08 16:32:00,
2013-05-08 12:33:00,49.4,49.4,29.75,NNE,28,0.0,0.0,100,0.00,,,0.00,134.00,VWS V14.01,2013-05-08 16:33:00,
2013-05-08 12:34:00,49.4,49.4,29.75,North,3,0.0,0.0,100,0.00,,,0.00,121.00,VWS V14.01,2013-05-08 16:34:00,
2013-05-08 12:35:00,49.5,49.5,29.75,NE,48,0.0,0.0,100,0.00,,,0.00,144.00,VWS V14.01,2013-05-08 16:35:00,
2013-05-08 12:36:00,49.5,49.5,29.75,North,0,0.0,0.0,100,0.00,,,0.00,144.00,VWS V14.01,2013-05-08 16:36:00,
2013-05-08 12:37:00,49.5,49.5,29.75,North,359,0.0,0.0,100,0.00,,,0.00,157.00,VWS V14.01,2013-05-08 16:37:00,
2013-05-08 12:38:00,49.6,49.6,29.75,North,0,0.0,0.0,100,0.00,,,0.00,135.00,VWS V14.01,2013-05-08 16:38:00,
2013-05-08 12:39:00,49.6,49.6,29.75,North,0,0.0,0.0,100,0.00,,,0.00,132.00,VWS V14.01,2013-05-08 16:39:00,
2013-05-08 12:40:00,49.5,49.5,29.75,NE,48,0.0,0.0,100,0.00,,,0.00,144.00,VWS V14.01,2013-05-08 16:40:00,
2013-05-08 12:41:00,49.8,49.8,29.75,ENE,62,0.0,0.0,100,0.00,,,0.00,121.00,VWS V14.01,2013-05-08 16:41:00,
2013-05-08 12:42:00,49.8,49.8,29.75,ENE,64,0.0,0.0,100,0.00,,,0.00,121.00,VWS V14.01,2013-05-08 16:42:00,
2013-05-08 12:43:00,49.9,49.9,29.75,ENE,62,0.0,0.0,100,0.00,,,0.00,123.00,VWS V14.01,2013-05-08 16:43:00,
2013-05-08 12:44:00,49.9,49.9,29.75,North,0,0.0,0.0,100,0.00,,,0.00,128.00,VWS V14.01,2013-05-08 16:44:00,
2013-05-08 12:45:00,49.6,49.6,29.75,North,0,0.0,0.0,100,0.00,,,0.00,132.00,VWS V14.01,2013-05-08 16:45:00,
2013-05-08 12:46:00,49.8,49.8,29.74,North,3,0.0,0.0,100,0.00,,,0.00,151.00,VWS V14.01,2013-05-08 16:46:00,
2013-05-08 12:47:00,49.8,49.8,29.74,NNE,18,0.0,0.0,100,0.00,,,0.00,162.00,VWS V14.01,2013-05-08 16:47:00,
2013-05-08 12:48:00,49.8,49.8,29.74,North,354,0.0,0.0,100,0.00,,,0.00,171.00,VWS V14.01,2013-05-08 16:48:00,
2013-05-08 12:49:00,49.6,49.6,29.74,North,8,0.0,0.0,100,0.00,,,0.00,171.00,VWS V14.01,2013-05-08 16:49:00,
2013-05-08 12:50:00,49.8,49.8,29.74,NNW,343,0.0,0.0,100,0.00,,,0.00,139.00,VWS V14.01,2013-05-08 16:50:00,
2013-05-08 12:51:00,49.6,49.6,29.74,North,11,0.0,0.0,100,0.00,,,0.00,195.00,VWS V14.01,2013-05-08 16:51:00,
2013-05-08 12:52:00,49.6,49.6,29.74,North,3,0.0,0.0,100,0.00,,,0.00,199.00,VWS V14.01,2013-05-08 16:52:00,
2013-05-08 12:53:00,49.6,49.6,29.74,NNE,32,0.0,0.0,100,0.00,,,0.00,199.00,VWS V14.01,2013-05-08 16:53:00,
2013-05-08 12:54:00,49.5,49.2,29.74,NNE,30,0.0,0.0,99,0.00,,,0.00,179.00,VWS V14.01,2013-05-08 16:54:00,
2013-05-08 12:55:00,49.5,49.2,29.74,North,0,0.0,0.0,99,0.00,,,0.00,174.00,VWS V14.01,2013-05-08 16:55:00,
2013-05-08 12:56:00,49.6,49.6,29.74,North,11,0.0,0.0,100,0.00,,,0.00,195.00,VWS V14.01,2013-05-08 16:56:00,
2013-05-08 12:57:00,49.5,49.2,29.74,NNE,30,0.0,0.0,99,0.00,,,0.00,165.00,VWS V14.01,2013-05-08 16:57:00,
2013-05-08 12:58:00,49.5,49.2,29.74,NNE,16,0.0,0.0,99,0.00,,,0.00,178.00,VWS V14.01,2013-05-08 16:58:00,
2013-05-08 12:59:00,49.6,49.3,29.74,NNE,16,0.0,0.0,99,0.00,,,0.00,178.00,VWS V14.01,2013-05-08 16:59:00,
2013-05-08 13:00:00,49.6,49.3,29.74,NNE,24,0.0,0.0,99,0.00,,,0.00,178.00,VWS V14.01,2013-05-08 17:00:00,
2013-05-08 13:01:00,49.5,49.2,29.74,NNW,336,0.0,0.0,99,0.00,,,0.00,171.00,VWS V14.01,2013-05-08 17:01:00,
2013-05-08 13:02:00,49.6,49.6,29.74,North,0,0.0,0.0,100,0.00,,,0.00,178.00,VWS V14.01,2013-05-08 17:02:00,
2013-05-08 13:03:00,49.8,49.8,29.74,North,1,0.0,0.0,100,0.00,,,0.00,188.00,VWS V14.01,2013-05-08 17:03:00,
2013-05-08 13:04:00,49.8,49.8,29.74,North,357,0.0,0.0,100,0.00,,,0.00,185.00,VWS V14.01,2013-05-08 17:04:00,
2013-05-08 13:05:00,49.8,49.8,29.74,North,0,0.0,0.0,100,0.00,,,0.00,176.00,VWS V14.01,2013-05-08 17:05:00,
2013-05-08 13:06:00,49.6,49.3,29.74,NNE,24,0.0,0.0,99,0.00,,,0.00,178.00,VWS V14.01,2013-05-08 17:06:00,
2013-05-08 13:07:00,49.8,49.8,29.74,NNE,14,0.0,0.0,100,0.00,,,0.00,174.00,VWS V14.01,2013-05-08 17:07:00,
2013-05-08 13:08:00,49.8,49.8,29.74,North,0,0.0,0.0,100,0.00,,,0.00,167.00,VWS V14.01,2013-05-08 17:08:00,
2013-05-08 13:09:00,49.8,49.8,29.74,North,7,0.0,0.0,100,0.00,,,0.00,162.00,VWS V14.01,2013-05-08 17:09:00,
2013-05-08 13:10:00,49.9,49.9,29.74,North,350,0.0,0.0,100,0.00,,,0.00,162.00,VWS V14.01,2013-05-08 17:10:00,
2013-05-08 13:11:00,49.9,49.9,29.74,North,350,0.0,0.0,100,0.00,,,0.00,160.00,VWS V14.01,2013-05-08 17:11:00,
2013-05-08 13:12:00,49.8,49.8,29.74,NNE,14,0.0,0.0,100,0.00,,,0.00,174.00,VWS V14.01,2013-05-08 17:12:00,
2013-05-08 13:13:00,49.9,49.9,29.74,NNW,343,0.0,0.0,100,0.00,,,0.00,157.00,VWS V14.01,2013-05-08 17:13:00,
2013-05-08 13:14:00,49.9,49.9,29.74,North,0,0.0,0.0,100,0.00,,,0.00,157.00,VWS V14.01,2013-05-08 17:14:00,
2013-05-08 13:15:00,49.9,49.9,29.74,North,0,0.0,0.0,100,0.00,,,0.00,157.00,VWS V14.01,2013-05-08 17:15:00,
2013-05-08 13:16:00,49.9,49.9,29.74,North,0,0.0,0.0,100,0.00,,,0.00,157.00,VWS V14.01,2013-05-08 17:16:00,
2013-05-08 13:17:00,49.9,49.9,29.74,North,0,0.0,0.0,100,0.00,,,0.00,157.00,VWS V14.01,2013-05-08 17:17:00,
2013-05-08 13:18:00,49.9,49.9,29.74,NNW,343,0.0,0.0,100,0.00,,,0.00,157.00,VWS V14.01,2013-05-08 17:18:00,
2013-05-08 13:19:00,49.9,49.9,29.74,North,0,0.0,0.0,100,0.00,,,0.00,157.00,VWS V14.01,2013-05-08 17:19:00,
2013-05-08 13:20:00,49.9,49.9,29.74,North,0,0.0,0.0,100,0.00,,,0.00,157.00,VWS V14.01,2013-05-08 17:20:00,
2013-05-08 13:21:00,49.9,49.9,29.74,North,0,0.0,0.0,100,0.00,,,0.00,157.00,VWS V14.01,2013-05-08 17:21:00,
2013-05-08 13:22:00,49.9,49.9,29.74,North,0,0.0,0.0,100,0.00,,,0.00,157.00,VWS V14.01,2013-05-08 17:22:00,
2013-05-08 13:23:00,49.9,49.9,29.74,North,0,0.0,0.0,100,0.00,,,0.00,157.00,VWS V14.01,2013-05-08 17:23:00,
2013-05-08 13:24:00,49.9,49.9,29.74,North,0,0.0,0.0,100,0.00,,,0.00,157.00,VWS V14.01,2013-05-08 17:24:00,
2013-05-08 13:25:00,49.9,49.9,29.74,NNW,342,0.0,0.0,100,0.00,,,0.00,157.00,VWS V14.01,2013-05-08 17:25:00,
2013-05-08 13:26:00,49.9,49.9,29.74,NNW,342,0.0,0.0,100,0.00,,,0.00,157.00,VWS V14.01,2013-05-08 17:26:00,
2013-05-08 13:27:00,49.9,49.9,29.74,NNW,342,0.0,0.0,100,0.00,,,0.00,157.00,VWS V14.01,2013-05-08 17:27:00,
2013-05-08 13:28:00,49.9,49.9,29.74,NNW,342,0.0,0.0,100,0.00,,,0.00,157.00,VWS V14.01,2013-05-08 17:28:00,
2013-05-08 13:29:00,49.9,49.9,29.74,North,0,0.0,0.0,100,0.00,,,0.00,157.00,VWS V14.01,2013-05-08 17:29:00,
2013-05-08 13:30:00,49.9,49.9,29.74,NNW,342,0.0,0.0,100,0.00,,,0.00,157.00,VWS V14.01,2013-05-08 17:30:00,
2013-05-08 13:31:00,49.9,49.9,29.74,NNW,342,0.0,0.0,100,0.00,,,0.00,157.00,VWS V14.01,2013-05-08 17:31:00,
2013-05-08 13:32:00,49.9,49.9,29.74,NNW,342,0.0,0.0,100,0.00,,,0.00,157.00,VWS V14.01,2013-05-08 17:32:00,
2013-05-08 13:33:00,49.9,49.9,29.74,NNW,342,0.0,0.0,100,0.00,,,0.00,157.00,VWS V14.01,2013-05-08 17:33:00,
2013-05-08 13:34:00,49.9,49.9,29.74,NNW,342,0.0,0.0,100,0.00,,,0.00,157.00,VWS V14.01,2013-05-08 17:34:00,
2013-05-08 13:35:00,49.9,49.9,29.74,NNW,343,0.0,0.0,100,0.00,,,0.00,157.00,VWS V14.01,2013-05-08 17:35:00,
2013-05-08 13:36:00,49.9,49.9,29.74,NNW,343,0.0,0.0,100,0.00,,,0.00,157.00,VWS V14.01,2013-05-08 17:36:00,
2013-05-08 13:37:00,49.9,49.9,29.74,NNW,343,0.0,0.0,100,0.00,,,0.00,157.00,VWS V14.01,2013-05-08 17:37:00,
2013-05-08 13:38:00,49.9,49.9,29.74,NNW,343,0.0,0.0,100,0.00,,,0.00,157.00,VWS V14.01,2013-05-08 17:38:00,
2013-05-08 13:39:00,49.9,49.9,29.74,NNW,346,0.0,0.0,100,0.00,,,0.00,157.00,VWS V14.01,2013-05-08 17:39:00,
2013-05-08 13:40:00,50.5,50.5,29.74,North,357,0.0,0.0,100,0.00,,,0.00,157.00,VWS V14.01,2013-05-08 17:40:00,
2013-05-08 13:41:00,50.5,50.5,29.74,NNW,342,0.0,0.0,100,0.00,,,0.00,157.00,VWS V14.01,2013-05-08 17:41:00,
2013-05-08 13:42:00,50.5,50.5,29.74,NNE,23,0.0,0.0,100,0.00,,,0.00,157.00,VWS V14.01,2013-05-08 17:42:00,
2013-05-08 13:43:00,50.5,50.5,29.74,NNE,16,0.0,0.0,100,0.00,,,0.00,157.00,VWS V14.01,2013-05-08 17:43:00,
2013-05-08 13:44:00,50.7,50.7,29.74,NNE,31,0.0,0.0,100,0.00,,,0.00,157.00,VWS V14.01,2013-05-08 17:44:00,
2013-05-08 13:45:00,50.5,50.5,29.74,North,7,0.0,0.0,100,0.00,,,0.00,206.00,VWS V14.01,2013-05-08 17:45:00,
2013-05-08 13:46:00,50.5,50.2,29.74,NNE,20,0.0,0.0,99,0.00,,,0.00,202.00,VWS V14.01,2013-05-08 17:46:00,
2013-05-08 13:47:00,50.5,50.2,29.74,NNW,340,0.0,0.0,99,0.00,,,0.00,201.00,VWS V14.01,2013-05-08 17:47:00,
2013-05-08 13:48:00,50.5,50.2,29.74,NNW,344,0.0,0.0,99,0.00,,,0.00,201.00,VWS V14.01,2013-05-08 17:48:00,
2013-05-08 13:49:00,50.4,50.1,29.74,NNE,24,0.0,0.0,99,0.00,,,0.00,201.00,VWS V14.01,2013-05-08 17:49:00,
2013-05-08 13:50:00,50.5,50.5,29.74,North,7,0.0,0.0,100,0.00,,,0.00,206.00,VWS V14.01,2013-05-08 17:50:00,
2013-05-08 13:51:00,50.4,50.1,29.74,NNW,344,0.0,0.0,99,0.00,,,0.00,195.00,VWS V14.01,2013-05-08 17:51:00,
2013-05-08 13:52:00,50.4,50.1,29.74,North,0,0.0,0.0,99,0.00,,,0.00,197.00,VWS V14.01,2013-05-08 17:52:00,
2013-05-08 13:53:00,50.4,50.1,29.74,NNE,17,0.0,0.0,99,0.00,,,0.00,199.00,VWS V14.01,2013-05-08 17:53:00,
2013-05-08 13:54:00,50.4,50.1,29.74,North,0,0.0,0.0,99,0.00,,,0.00,195.00,VWS V14.01,2013-05-08 17:54:00,
2013-05-08 13:55:00,50.4,50.1,29.74,NNE,18,0.0,0.0,99,0.00,,,0.00,194.00,VWS V14.01,2013-05-08 17:55:00,
2013-05-08 13:56:00,50.4,50.1,29.74,NNW,344,0.0,0.0,99,0.00,,,0.00,195.00,VWS V14.01,2013-05-08 17:56:00,
2013-05-08 13:57:00,50.4,50.1,29.74,NNE,14,0.0,0.0,99,0.00,,,0.00,197.00,VWS V14.01,2013-05-08 17:57:00,
2013-05-08 13:58:00,50.4,50.1,29.74,North,353,0.0,0.0,99,0.00,,,0.00,190.00,VWS V14.01,2013-05-08 17:58:00,
2013-05-08 13:59:00,50.4,50.1,29.74,NNW,344,0.0,0.0,99,0.00,,,0.00,197.00,VWS V14.01,2013-05-08 17:59:00,
2013-05-08 14:00:00,50.2,49.9,29.74,North,0,0.0,0.0,99,0.00,,,0.00,197.00,VWS V14.01,2013-05-08 18:00:00,
2013-05-08 14:01:00,50.4,50.1,29.74,NNE,30,0.0,0.0,99,0.00,,,0.00,194.00,VWS V14.01,2013-05-08 18:01:00,
2013-05-08 14:02:00,50.4,50.1,29.74,North,3,0.0,0.0,99,0.00,,,0.00,197.00,VWS V14.01,2013-05-08 18:02:00,
2013-05-08 14:03:00,50.4,50.1,29.74,North,7,0.0,0.0,99,0.00,,,0.00,197.00,VWS V14.01,2013-05-08 18:03:00,
2013-05-08 14:04:00,50.2,49.9,29.74,NNW,343,0.0,0.0,99,0.00,,,0.00,222.00,VWS V14.01,2013-05-08 18:04:00,
2013-05-08 14:05:00,50.2,49.9,29.74,NNW,344,0.0,0.0,99,0.00,,,0.00,222.00,VWS V14.01,2013-05-08 18:05:00,
2013-05-08 14:06:00,50.2,49.9,29.74,North,354,0.0,0.0,99,0.00,,,0.00,222.00,VWS V14.01,2013-05-08 18:06:00,
2013-05-08 14:07:00,50.4,50.1,29.74,North,3,0.0,0.0,99,0.00,,,0.00,197.00,VWS V14.01,2013-05-08 18:07:00,
2013-05-08 14:08:00,50.4,50.1,29.74,North,353,0.0,0.0,99,0.00,,,0.00,230.00,VWS V14.01,2013-05-08 18:08:00,
2013-05-08 14:09:00,50.4,50.1,29.74,ENE,68,0.0,0.0,99,0.00,,,0.00,239.00,VWS V14.01,2013-05-08 18:09:00,
2013-05-08 14:10:00,50.4,50.1,29.74,NNE,27,0.0,0.0,99,0.00,,,0.00,239.00,VWS V14.01,2013-05-08 18:10:00,
2013-05-08 14:11:00,50.4,50.1,29.74,North,0,0.0,0.0,99,0.00,,,0.00,239.00,VWS V14.01,2013-05-08 18:11:00,
2013-05-08 14:12:00,50.2,49.9,29.74,NE,51,0.0,0.0,99,0.00,,,0.00,222.00,VWS V14.01,2013-05-08 18:12:00,
2013-05-08 14:13:00,50.5,50.2,29.74,North,0,0.0,0.0,99,0.00,,,0.00,230.00,VWS V14.01,2013-05-08 18:13:00,
2013-05-08 14:14:00,50.5,50.2,29.74,North,359,0.0,0.0,99,0.00,,,0.00,230.00,VWS V14.01,2013-05-08 18:14:00,
2013-05-08 14:15:00,50.4,50.1,29.74,NNE,16,0.0,0.0,99,0.00,,,0.00,230.00,VWS V14.01,2013-05-08 18:15:00,
2013-05-08 14:16:00,50.4,50.1,29.74,NNE,16,0.0,0.0,99,0.00,,,0.00,230.00,VWS V14.01,2013-05-08 18:16:00,
2013-05-08 14:17:00,50.4,50.1,29.74,North,0,0.0,0.0,99,0.00,,,0.00,239.00,VWS V14.01,2013-05-08 18:17:00,
2013-05-08 14:18:00,50.4,50.1,29.74,NNE,16,0.0,0.0,99,0.00,,,0.00,230.00,VWS V14.01,2013-05-08 18:18:00,
2013-05-08 14:19:00,50.5,50.2,29.74,North,10,0.0,0.0,99,0.00,,,0.00,230.00,VWS V14.01,2013-05-08 18:19:00,
2013-05-08 14:20:00,50.5,50.2,29.74,North,0,0.0,0.0,99,0.00,,,0.00,238.00,VWS V14.01,2013-05-08 18:20:00,
2013-05-08 14:21:00,50.5,50.2,29.74,NNE,14,0.0,0.0,99,0.00,,,0.00,241.00,VWS V14.01,2013-05-08 18:21:00,
2013-05-08 14:22:00,50.5,50.2,29.74,NNE,14,0.0,0.0,99,0.00,,,0.00,239.00,VWS V14.01,2013-05-08 18:22:00,
2013-05-08 14:23:00,50.4,50.1,29.74,NNE,16,0.0,0.0,99,0.00,,,0.00,230.00,VWS V14.01,2013-05-08 18:23:00,
2013-05-08 14:24:00,50.7,50.4,29.74,North,356,0.0,0.0,99,0.00,,,0.00,269.00,VWS V14.01,2013-05-08 18:24:00,
2013-05-08 14:25:00,50.7,50.4,29.74,North,357,0.0,0.0,99,0.00,,,0.00,294.00,VWS V14.01,2013-05-08 18:25:00,
2013-05-08 14:26:00,50.7,50.4,29.74,NNE,17,0.0,0.0,99,0.00,,,0.00,306.00,VWS V14.01,2013-05-08 18:26:00,
2013-05-08 14:27:00,51.0,50.7,29.74,NNE,17,0.0,0.0,99,0.00,,,0.00,308.00,VWS V14.01,2013-05-08 18:27:00,
2013-05-08 14:28:00,50.7,50.4,29.74,North,10,0.0,0.0,99,0.00,,,0.00,241.00,VWS V14.01,2013-05-08 18:28:00,
2013-05-08 14:29:00,51.3,51.0,29.74,NNE,17,0.0,0.0,99,0.00,,,0.00,343.00,VWS V14.01,2013-05-08 18:29:00,
2013-05-08 14:30:00,51.4,51.1,29.75,NNE,17,0.0,0.0,99,0.00,,,0.00,350.00,VWS V14.01,2013-05-08 18:30:00,
2013-05-08 14:31:00,51.4,51.1,29.75,NNE,24,0.0,0.0,99,0.00,,,0.00,364.00,VWS V14.01,2013-05-08 18:31:00,
2013-05-08 14:32:00,51.6,51.3,29.75,NE,54,0.0,0.0,99,0.00,,,0.00,370.00,VWS V14.01,2013-05-08 18:32:00,
2013-05-08 14:33:00,51.1,50.8,29.74,NNE,17,0.0,0.0,99,0.00,,,0.00,336.00,VWS V14.01,2013-05-08 18:33:00,
2013-05-08 14:34:00,51.4,51.1,29.75,ENE,62,0.0,0.0,99,0.00,,,0.00,398.00,VWS V14.01,2013-05-08 18:34:00,
2013-05-08 14:35:00,51.4,51.1,29.75,North,3,0.0,0.0,99,0.00,,,0.00,398.00,VWS V14.01,2013-05-08 18:35:00,
2013-05-08 14:36:00,51.4,51.1,29.75,NE,44,0.0,0.0,99,0.00,,,0.00,392.00,VWS V14.01,2013-05-08 18:36:00,
2013-05-08 14:37:00,51.3,51.0,29.75,NNE,24,0.0,0.0,99,0.00,,,0.00,378.00,VWS V14.01,2013-05-08 18:37:00,
2013-05-08 14:38:00,51.4,51.1,29.75,NNE,32,0.0,0.0,99,0.00,,,0.00,391.00,VWS V14.01,2013-05-08 18:38:00,
2013-05-08 14:39:00,51.4,51.1,29.75,North,0,0.0,0.0,99,0.00,,,0.00,362.00,VWS V14.01,2013-05-08 18:39:00,
2013-05-08 14:40:00,51.3,51.0,29.75,North,353,0.0,0.0,99,0.00,,,0.00,371.00,VWS V14.01,2013-05-08 18:40:00,
2013-05-08 14:41:00,51.3,51.0,29.75,ENE,76,0.0,0.0,99,0.00,,,0.00,368.00,VWS V14.01,2013-05-08 18:41:00,
2013-05-08 14:42:00,51.3,51.0,29.75,NNE,24,0.0,0.0,99,0.00,,,0.00,375.00,VWS V14.01,2013-05-08 18:42:00,
2013-05-08 14:43:00,51.4,51.1,29.75,NNW,346,0.0,0.0,99,0.00,,,0.00,361.00,VWS V14.01,2013-05-08 18:43:00,
2013-05-08 14:44:00,51.3,51.0,29.75,North,357,0.0,0.0,99,0.00,,,0.00,375.00,VWS V14.01,2013-05-08 18:44:00,
2013-05-08 14:45:00,51.4,51.1,29.74,North,0,0.0,0.0,99,0.00,,,0.00,382.00,VWS V14.01,2013-05-08 18:45:00,
2013-05-08 14:46:00,51.4,51.1,29.74,North,3,0.0,0.0,99,0.00,,,0.00,410.00,VWS V14.01,2013-05-08 18:46:00,
2013-05-08 14:47:00,51.4,51.1,29.74,NNE,28,0.0,0.0,99,0.00,,,0.00,436.00,VWS V14.01,2013-05-08 18:47:00,
2013-05-08 14:48:00,51.3,51.0,29.75,North,10,0.0,0.0,99,0.00,,,0.00,371.00,VWS V14.01,2013-05-08 18:48:00,
2013-05-08 14:49:00,51.6,51.3,29.74,North,1,0.0,0.0,99,0.00,,,0.00,428.00,VWS V14.01,2013-05-08 18:49:00,
2013-05-08 14:50:00,51.7,51.4,29.74,NNE,14,0.0,0.0,99,0.00,,,0.00,429.00,VWS V14.01,2013-05-08 18:50:00,
2013-05-08 14:51:00,51.7,51.4,29.74,North,0,0.0,0.0,99,0.00,,,0.00,429.00,VWS V14.01,2013-05-08 18:51:00,
2013-05-08 14:52:00,51.9,51.6,29.74,North,0,0.0,0.0,99,0.00,,,0.00,382.00,VWS V14.01,2013-05-08 18:52:00,
2013-05-08 14:53:00,51.9,51.6,29.74,ENE,76,0.0,0.0,99,0.00,,,0.00,359.00,VWS V14.01,2013-05-08 18:53:00,
2013-05-08 14:54:00,51.6,51.3,29.74,North,1,0.0,0.0,99,0.00,,,0.00,428.00,VWS V14.01,2013-05-08 18:54:00,
2013-05-08 14:55:00,51.9,51.6,29.74,NE,34,0.0,0.0,99,0.00,,,0.00,359.00,VWS V14.01,2013-05-08 18:55:00,
2013-05-08 14:56:00,52.0,51.7,29.74,NNE,14,0.0,0.0,99,0.00,,,0.00,373.00,VWS V14.01,2013-05-08 18:56:00,
2013-05-08 14:57:00,52.0,51.7,29.74,North,11,0.0,0.0,99,0.00,,,0.00,375.00,VWS V14.01,2013-05-08 18:57:00,
2013-05-08 14:58:00,52.2,51.9,29.74,North,0,0.0,0.0,99,0.00,,,0.00,359.00,VWS V14.01,2013-05-08 18:58:00,
2013-05-08 14:59:00,52.2,51.9,29.74,North,4,0.0,0.0,99,0.00,,,0.00,375.00,VWS V14.01,2013-05-08 18:59:00,
2013-05-08 15:00:00,51.9,51.6,29.74,NE,34,0.0,0.0,99,0.00,,,0.00,359.00,VWS V14.01,2013-05-08 19:00:00,
2013-05-08 15:01:00,52.0,51.7,29.74,North,1,0.0,0.0,99,0.00,,,0.00,412.00,VWS V14.01,2013-05-08 19:01:00,
2013-05-08 15:02:00,52.0,51.7,29.74,North,1,0.0,0.0,99,0.00,,,0.00,422.00,VWS V14.01,2013-05-08 19:02:00,
2013-05-08 15:03:00,52.2,51.9,29.74,NE,34,0.0,0.0,99,0.00,,,0.00,428.00,VWS V14.01,2013-05-08 19:03:00,
2013-05-08 15:04:00,52.2,51.9,29.74,North,10,0.0,0.0,99,0.00,,,0.00,410.00,VWS V14.01,2013-05-08 19:04:00,
2013-05-08 15:05:00,52.2,51.9,29.74,North,353,0.0,0.0,99,0.00,,,0.00,371.00,VWS V14.01,2013-05-08 19:05:00,
2013-05-08 15:06:00,52.0,51.7,29.74,North,1,0.0,0.0,99,0.00,,,0.00,412.00,VWS V14.01,2013-05-08 19:06:00,
2013-05-08 15:07:00,52.2,51.9,29.74,NNE,25,0.0,0.0,99,0.00,,,0.00,329.00,VWS V14.01,2013-05-08 19:07:00,
2013-05-08 15:08:00,52.3,52.0,29.74,NNE,24,0.0,0.0,99,0.00,,,0.00,315.00,VWS V14.01,2013-05-08 19:08:00,
2013-05-08 15:09:00,52.5,52.2,29.74,NE,42,0.0,0.0,99,0.00,,,0.00,317.00,VWS V14.01,2013-05-08 19:09:00,
2013-05-08 15:10:00,52.5,52.2,29.74,NNE,21,0.0,0.0,99,0.00,,,0.00,329.00,VWS V14.01,2013-05-08 19:10:00,
2013-05-08 15:11:00,52.5,52.2,29.74,North,0,0.0,0.0,99,0.00,,,0.00,329.00,VWS V14.01,2013-05-08 19:11:00,
2013-05-08 15:12:00,52.2,51.9,29.74,NNE,25,0.0,0.0,99,0.00,,,0.00,329.00,VWS V14.01,2013-05-08 19:12:00,
2013-05-08 15:17:00,52.6,52.0,29.74,NE,41,0.0,0.0,98,0.00,,,0.00,318.00,VWS V14.01,2013-05-08 19:17:00,
2013-05-08 15:22:00,52.9,52.3,29.73,North,0,0.0,0.0,98,0.00,,,0.00,329.00,VWS V14.01,2013-05-08 19:22:00,
2013-05-08 15:28:00,52.9,52.3,29.73,ENE,58,0.0,0.0,98,0.00,,,0.00,280.00,VWS V14.01,2013-05-08 19:28:00,
2013-05-08 15:33:00,53.1,52.5,29.73,North,8,0.0,0.0,98,0.00,,,0.00,165.00,VWS V14.01,2013-05-08 19:33:00,
2013-05-08 15:38:00,52.8,52.0,29.73,NNE,14,0.0,0.0,97,0.00,,,0.00,143.00,VWS V14.01,2013-05-08 19:38:00,
2013-05-08 15:43:00,52.8,52.0,29.73,NNE,18,0.0,0.0,97,0.00,,,0.00,151.00,VWS V14.01,2013-05-08 19:43:00,
2013-05-08 15:48:00,52.8,52.0,29.73,North,7,0.0,0.0,97,0.00,,,0.00,211.00,VWS V14.01,2013-05-08 19:48:00,
2013-05-08 15:54:00,52.6,51.5,29.73,North,7,0.0,0.0,96,0.00,,,0.00,262.00,VWS V14.01,2013-05-08 19:54:00,
2013-05-08 15:59:00,52.9,51.8,29.73,NNW,340,0.0,0.0,96,0.00,,,0.00,280.00,VWS V14.01,2013-05-08 19:59:00,
2013-05-08 16:05:00,53.2,52.1,29.73,North,354,0.0,0.0,96,0.00,,,0.00,313.00,VWS V14.01,2013-05-08 20:05:00,
2013-05-08 16:11:00,53.3,51.9,29.73,North,354,0.0,0.0,95,0.00,,,0.00,310.00,VWS V14.01,2013-05-08 20:11:00,
2013-05-08 16:17:00,53.6,52.2,29.73,NE,48,0.0,0.0,95,0.00,,,0.00,324.00,VWS V14.01,2013-05-08 20:17:00,
2013-05-08 16:22:00,54.5,52.8,29.73,NE,48,0.0,0.0,94,0.00,,,0.00,375.00,VWS V14.01,2013-05-08 20:22:00,
2013-05-08 16:28:00,55.0,52.7,29.73,WSW,237,0.0,0.0,92,0.00,,,0.00,428.00,VWS V14.01,2013-05-08 20:28:00,
2013-05-08 16:33:00,55.0,52.1,29.73,WSW,237,0.0,0.0,90,0.00,,,0.00,301.00,VWS V14.01,2013-05-08 20:33:00,
2013-05-08 16:39:00,55.3,51.8,29.74,South,179,0.0,0.0,88,0.00,,,0.00,317.00,VWS V14.01,2013-05-08 20:39:00,
2013-05-08 16:45:00,55.7,52.2,29.74,SW,232,0.0,0.0,88,0.00,,,0.00,222.00,VWS V14.01,2013-05-08 20:45:00,
2013-05-08 16:50:00,55.6,51.2,29.74,West,267,0.0,0.0,85,0.00,,,0.00,158.00,VWS V14.01,2013-05-08 20:50:00,
2013-05-08 16:55:00,55.7,51.6,29.74,West,271,0.0,0.0,86,0.00,,,0.00,155.00,VWS V14.01,2013-05-08 20:55:00,
2013-05-08 17:00:00,55.9,51.8,29.74,West,271,0.0,0.0,86,0.00,,,0.00,197.00,VWS V14.01,2013-05-08 21:00:00,
2013-05-08 17:06:00,56.0,51.6,29.74,West,277,0.0,0.0,85,0.00,,,0.00,236.00,VWS V14.01,2013-05-08 21:06:00,
2013-05-08 17:11:00,56.2,51.8,29.74,West,267,0.0,0.0,85,0.00,,,0.00,297.00,VWS V14.01,2013-05-08 21:11:00,
2013-05-08 17:17:00,56.3,52.2,29.74,WNW,284,0.0,0.0,86,0.00,,,0.00,354.00,VWS V14.01,2013-05-08 21:17:00,
2013-05-08 17:22:00,56.7,52.6,29.73,WNW,291,0.0,0.0,86,0.00,,,0.00,306.00,VWS V14.01,2013-05-08 21:22:00,
2013-05-08 17:27:00,56.7,52.2,29.73,NNW,340,0.0,0.0,85,0.00,,,0.00,355.00,VWS V14.01,2013-05-08 21:27:00,
2013-05-08 17:33:00,56.9,52.1,29.73,West,270,0.0,0.0,84,0.00,,,0.00,355.00,VWS V14.01,2013-05-08 21:33:00,
2013-05-08 17:39:00,57.2,52.1,29.73,WNW,296,0.0,0.0,83,0.01,,,0.01,355.00,VWS V14.01,2013-05-08 21:39:00,
2013-05-08 17:44:00,56.9,51.5,29.73,West,272,0.0,0.0,82,0.01,,,0.01,292.00,VWS V14.01,2013-05-08 21:44:00,
2013-05-08 17:50:00,56.7,50.9,29.73,West,270,0.0,0.0,81,0.01,,,0.01,243.00,VWS V14.01,2013-05-08 21:50:00,
2013-05-08 17:56:00,56.6,51.2,29.73,West,270,0.0,0.0,82,0.01,,,0.01,222.00,VWS V14.01,2013-05-08 21:56:00,
2013-05-08 18:01:00,56.9,51.8,29.73,West,270,0.0,0.0,83,0.01,,,0.01,187.00,VWS V14.01,2013-05-08 22:01:00,
2013-05-08 18:06:00,57.0,51.9,29.73,West,270,0.0,0.0,83,0.01,,,0.01,160.00,VWS V14.01,2013-05-08 22:06:00,
2013-05-08 18:12:00,57.2,52.1,29.73,SW,223,0.0,0.0,83,0.01,,,0.01,250.00,VWS V14.01,2013-05-08 22:12:00,
2013-05-08 18:17:00,57.3,52.2,29.73,SW,224,0.0,0.0,83,0.01,,,0.01,392.00,VWS V14.01,2013-05-08 22:17:00,
2013-05-08 18:23:00,57.6,52.2,29.73,SSE,162,0.0,0.0,82,0.01,,,0.01,318.00,VWS V14.01,2013-05-08 22:23:00,
2013-05-08 18:29:00,58.0,52.5,29.73,SSE,162,0.0,0.0,82,0.01,,,0.01,406.00,VWS V14.01,2013-05-08 22:29:00,
2013-05-08 18:35:00,58.3,53.2,29.73,SSE,151,0.0,0.0,83,0.01,,,0.01,153.00,VWS V14.01,2013-05-08 22:35:00,
2013-05-08 18:40:00,58.0,52.5,29.73,SE,144,0.0,0.0,82,0.00,,,0.01,165.00,VWS V14.01,2013-05-08 22:40:00,
2013-05-08 18:45:00,57.8,52.3,29.73,SSE,148,0.0,0.0,82,0.00,,,0.01,150.00,VWS V14.01,2013-05-08 22:45:00,
2013-05-08 18:51:00,57.5,52.4,29.72,SSE,154,0.0,0.0,83,0.00,,,0.01,164.00,VWS V14.01,2013-05-08 22:51:00,
2013-05-08 18:56:00,57.3,52.5,29.72,SSE,154,0.0,0.0,84,0.00,,,0.01,120.00,VWS V14.01,2013-05-08 22:56:00,
2013-05-08 19:02:00,57.0,52.5,29.72,SE,124,0.0,0.0,85,0.00,,,0.01,106.00,VWS V14.01,2013-05-08 23:02:00,
2013-05-08 19:08:00,56.9,52.4,29.73,SSE,154,0.0,0.0,85,0.00,,,0.01,100.00,VWS V14.01,2013-05-08 23:08:00,
2013-05-08 19:13:00,56.6,52.5,29.73,ESE,117,0.0,0.0,86,0.00,,,0.01,95.00,VWS V14.01,2013-05-08 23:13:00,
2013-05-08 19:18:00,56.6,52.5,29.73,SSE,155,0.0,0.0,86,0.00,,,0.01,91.00,VWS V14.01,2013-05-08 23:18:00,
2013-05-08 19:24:00,56.5,52.4,29.73,SSE,151,0.0,0.0,86,0.00,,,0.01,70.00,VWS V14.01,2013-05-08 23:24:00,
2013-05-08 19:29:00,56.5,52.4,29.73,SSE,160,0.0,0.0,86,0.00,,,0.01,35.00,VWS V14.01,2013-05-08 23:29:00,
2013-05-08 19:35:00,56.3,52.5,29.74,South,184,0.0,0.0,87,0.00,,,0.01,37.00,VWS V14.01,2013-05-08 23:35:00,
2013-05-08 19:40:00,56.3,52.5,29.74,South,181,0.0,0.0,87,0.00,,,0.01,30.00,VWS V14.01,2013-05-08 23:40:00,
2013-05-08 19:46:00,56.2,52.4,29.74,NW,305,0.0,0.0,87,0.00,,,0.01,18.00,VWS V14.01,2013-05-08 23:46:00,
2013-05-08 19:52:00,55.9,52.1,29.75,WSW,256,0.0,0.0,87,0.00,,,0.01,14.00,VWS V14.01,2013-05-08 23:52:00,
2013-05-08 19:58:00,55.7,51.9,29.75,West,264,0.0,0.0,87,0.00,,,0.01,11.00,VWS V14.01,2013-05-08 23:58:00,
2013-05-08 20:03:00,55.6,51.8,29.75,West,264,0.0,0.0,87,0.00,,,0.01,7.00,VWS V14.01,2013-05-09 00:03:00,
2013-05-08 20:08:00,55.4,51.6,29.75,WSW,256,0.0,0.0,87,0.00,,,0.01,5.00,VWS V14.01,2013-05-09 00:08:00,
2013-05-08 20:14:00,55.3,51.5,29.75,WSW,248,0.0,0.0,87,0.00,,,0.01,0.00,VWS V14.01,2013-05-09 00:14:00,
2013-05-08 20:19:00,55.0,51.5,29.75,WSW,248,0.0,0.0,88,0.00,,,0.01,0.00,VWS V14.01,2013-05-09 00:19:00,
2013-05-08 20:24:00,54.8,51.3,29.76,WSW,248,0.0,0.0,88,0.00,,,0.01,0.00,VWS V14.01,2013-05-09 00:24:00,
2013-05-08 20:29:00,54.5,51.0,29.76,SW,229,0.0,0.0,88,0.00,,,0.01,0.00,VWS V14.01,2013-05-09 00:29:00,
2013-05-08 20:35:00,54.2,50.7,29.76,SW,230,0.0,0.0,88,0.00,,,0.01,0.00,VWS V14.01,2013-05-09 00:35:00,
2013-05-08 20:41:00,54.1,50.9,29.76,SW,230,0.0,0.0,89,0.00,,,0.01,0.00,VWS V14.01,2013-05-09 00:41:00,
2013-05-08 20:46:00,53.8,50.6,29.76,SW,229,0.0,0.0,89,0.00,,,0.01,0.00,VWS V14.01,2013-05-09 00:46:00,
2013-05-08 20:51:00,53.6,50.7,29.76,WSW,240,0.0,0.0,90,0.00,,,0.01,0.00,VWS V14.01,2013-05-09 00:51:00,
2013-05-08 20:57:00,53.3,50.5,29.76,WSW,240,0.0,0.0,90,0.00,,,0.01,0.00,VWS V14.01,2013-05-09 00:57:00,
2013-05-08 21:03:00,53.2,50.3,29.76,WSW,240,0.0,0.0,90,0.00,,,0.01,0.00,VWS V14.01,2013-05-09 01:03:00,
2013-05-08 21:08:00,53.1,50.5,29.77,WSW,240,0.0,0.0,91,0.00,,,0.01,0.00,VWS V14.01,2013-05-09 01:08:00,
2013-05-08 21:13:00,52.9,50.3,29.77,WSW,240,0.0,0.0,91,0.00,,,0.01,0.00,VWS V14.01,2013-05-09 01:13:00,
2013-05-08 21:18:00,52.8,50.5,29.77,WSW,240,0.0,0.0,92,0.00,,,0.01,0.00,VWS V14.01,2013-05-09 01:18:00,
2013-05-08 21:23:00,52.6,50.3,29.77,WSW,240,0.0,0.0,92,0.00,,,0.01,0.00,VWS V14.01,2013-05-09 01:23:00,
2013-05-08 21:28:00,52.6,50.3,29.77,WSW,240,0.0,0.0,92,0.00,,,0.01,0.00,VWS V14.01,2013-05-09 01:28:00,
2013-05-08 21:34:00,52.5,50.2,29.77,SE,133,0.0,0.0,92,0.00,,,0.01,0.00,VWS V14.01,2013-05-09 01:34:00,
2013-05-08 21:39:00,52.3,50.3,29.77,SE,133,0.0,0.0,93,0.00,,,0.01,0.00,VWS V14.01,2013-05-09 01:39:00,
2013-05-08 21:45:00,52.2,50.2,29.77,SE,133,0.0,0.0,93,0.00,,,0.01,0.00,VWS V14.01,2013-05-09 01:45:00,
2013-05-08 21:50:00,52.2,50.5,29.78,SE,133,0.0,0.0,94,0.00,,,0.01,0.00,VWS V14.01,2013-05-09 01:50:00,
2013-05-08 21:55:00,52.0,50.3,29.78,SE,133,0.0,0.0,94,0.00,,,0.01,0.00,VWS V14.01,2013-05-09 01:55:00,
2013-05-08 22:01:00,51.7,50.0,29.78,SE,133,0.0,0.0,94,0.00,,,0.01,0.00,VWS V14.01,2013-05-09 02:01:00,
2013-05-08 22:07:00,51.7,50.3,29.78,ESE,120,0.0,0.0,95,0.00,,,0.01,0.00,VWS V14.01,2013-05-09 02:07:00,
2013-05-08 22:12:00,51.7,50.3,29.78,ESE,120,0.0,0.0,95,0.00,,,0.01,0.00,VWS V14.01,2013-05-09 02:12:00,
2013-05-08 22:17:00,51.7,50.3,29.78,ESE,120,0.0,0.0,95,0.00,,,0.01,0.00,VWS V14.01,2013-05-09 02:17:00,
2013-05-08 22:22:00,51.6,50.2,29.80,ESE,120,0.0,0.0,95,0.00,,,0.01,0.00,VWS V14.01,2013-05-09 02:22:00,
2013-05-08 22:28:00,51.4,50.3,29.80,ESE,120,0.0,0.0,96,0.00,,,0.01,0.00,VWS V14.01,2013-05-09 02:28:00,
2013-05-08 22:33:00,51.4,50.3,29.80,ESE,120,0.0,0.0,96,0.00,,,0.01,0.00,VWS V14.01,2013-05-09 02:33:00,
2013-05-08 22:38:00,51.3,50.2,29.80,ESE,120,0.0,0.0,96,0.00,,,0.01,0.00,VWS V14.01,2013-05-09 02:38:00,
2013-05-08 22:44:00,51.3,50.2,29.80,ESE,120,0.0,0.0,96,0.00,,,0.01,0.00,VWS V14.01,2013-05-09 02:44:00,
2013-05-08 22:50:00,51.4,50.3,29.80,ESE,121,0.0,0.0,96,0.00,,,0.01,0.00,VWS V14.01,2013-05-09 02:50:00,
2013-05-08 22:55:00,51.6,50.5,29.80,SSE,147,0.0,0.0,96,0.00,,,0.01,0.00,VWS V14.01,2013-05-09 02:55:00,
2013-05-08 23:00:00,51.7,50.9,29.80,SE,128,0.0,0.0,97,0.00,,,0.01,0.00,VWS V14.01,2013-05-09 03:00:00,
2013-05-08 23:06:00,51.7,50.9,29.80,SE,128,0.0,0.0,97,0.00,,,0.01,0.00,VWS V14.01,2013-05-09 03:06:00,
2013-05-08 23:11:00,51.9,51.1,29.80,SSE,160,0.0,0.0,97,0.00,,,0.01,0.00,VWS V14.01,2013-05-09 03:11:00,
2013-05-08 23:16:00,51.9,51.1,29.80,SSE,158,0.0,0.0,97,0.00,,,0.01,0.00,VWS V14.01,2013-05-09 03:16:00,
2013-05-08 23:21:00,52.0,51.2,29.80,SSE,154,0.0,0.0,97,0.00,,,0.01,0.00,VWS V14.01,2013-05-09 03:21:00,
2013-05-08 23:27:00,52.0,51.2,29.80,SSE,155,0.0,0.0,97,0.00,,,0.01,0.00,VWS V14.01,2013-05-09 03:27:00,
2013-05-08 23:32:00,52.0,51.2,29.80,SSE,164,0.0,0.0,97,0.00,,,0.01,0.00,VWS V14.01,2013-05-09 03:32:00,
2013-05-08 23:37:00,51.9,51.1,29.80,SE,140,0.0,0.0,97,0.00,,,0.01,0.00,VWS V14.01,2013-05-09 03:37:00,
2013-05-08 23:42:00,51.7,50.9,29.80,SE,138,0.0,0.0,97,0.00,,,0.01,0.00,VWS V14.01,2013-05-09 03:42:00,
2013-05-08 23:47:00,51.7,50.9,29.80,SSE,162,0.0,0.0,97,0.00,,,0.01,0.00,VWS V14.01,2013-05-09 03:47:00,
2013-05-08 23:53:00,51.4,50.6,29.80,SSE,162,0.0,0.0,97,0.00,,,0.01,0.00,VWS V14.01,2013-05-09 03:53:00,
2013-05-08 23:58:00,51.1,50.3,29.80,SE,124,0.0,0.0,97,0.00,,,0.01,0.00,VWS V14.01,2013-05-09 03:58:00,